Time,TemperatureF,DewpointF,PressureIn,WindDirection,WindDirectionDegrees,WindSpeedMPH,WindSpeedGustMPH,Humidity,HourlyPrecipIn,Conditions,Clouds,dailyrainin,SoftwareType,DateUTC
2013-10-01 00:00:00,55.9,53.6,30.02,WSW,249,0.0,0.0,92,0.00,,,0.00,Wunderground v.1.15,2013-10-01 04:00:00,
2013-10-01 00:01:00,55.9,53.6,30.02,WSW,249,1.0,1.0,92,0.00,,,0.00,Wunderground v.1.15,2013-10-01 04:01:00,
2013-10-01 00:06:00,55.7,53.4,30.01,WSW,249,0.0,3.0,92,0.00,,,0.00,Wunderground v.1.15,2013-10-01 04:06:00,
2013-10-01 00:08:00,55.7,53.4,30.01,WSW,249,0.0,3.0,92,0.00,,,0.00,Wunderground v.1.15,2013-10-01 04:08:00,
2013-10-01 00:11:00,55.7,53.4,30.01,WSW,249,0.0,0.0,92,0.00,,,0.00,Wunderground v.1.15,2013-10-01 04:11:00,
2013-10-01 00:13:00,55.7,53.4,30.01,WSW,249,0.0,0.0,92,0.00,,,0.00,Wunderground v.1.15,2013-10-01 04:13:00,
2013-10-01 00:16:00,55.7,53.4,30.01,WSW,249,0.0,0.0,92,0.00,,,0.00,Wunderground v.1.15,2013-10-01 04:16:00,
2013-10-01 00:17:00,55.6,53.3,30.01,WSW,249,0.0,0.0,92,0.00,,,0.00,Wunderground v.1.15,2013-10-01 04:17:00,
2013-10-01 00:18:00,55.7,53.4,30.01,WSW,249,0.0,0.0,92,0.00,,,0.00,Wunderground v.1.15,2013-10-01 04:18:00,
2013-10-01 00:21:00,55.6,53.3,30.01,WSW,249,0.0,0.0,92,0.00,,,0.00,Wunderground v.1.15,2013-10-01 04:21:00,
2013-10-01 00:22:00,55.6,53.3,30.01,WSW,249,0.0,1.0,92,0.00,,,0.00,Wunderground v.1.15,2013-10-01 04:22:00,
2013-10-01 00:24:00,55.6,53.6,30.01,WSW,249,0.0,1.0,93,0.00,,,0.00,Wunderground v.1.15,2013-10-01 04:24:00,
2013-10-01 00:27:00,55.6,53.3,30.01,WSW,249,0.0,2.0,92,0.00,,,0.00,Wunderground v.1.15,2013-10-01 04:27:00,
2013-10-01 00:29:00,55.6,53.6,30.01,WSW,249,0.0,2.0,93,0.00,,,0.00,Wunderground v.1.15,2013-10-01 04:29:00,
2013-10-01 00:32:00,55.6,53.6,30.01,WSW,249,0.0,0.0,93,0.00,,,0.00,Wunderground v.1.15,2013-10-01 04:32:00,
2013-10-01 00:35:00,55.6,53.6,30.01,WSW,249,0.0,0.0,93,0.00,,,0.00,Wunderground v.1.15,2013-10-01 04:35:00,
2013-10-01 00:37:00,55.6,53.6,30.01,WSW,249,0.0,0.0,93,0.00,,,0.00,Wunderground v.1.15,2013-10-01 04:37:00,
2013-10-01 00:38:00,55.6,53.6,30.01,WSW,249,0.0,0.0,93,0.00,,,0.00,Wunderground v.1.15,2013-10-01 04:38:00,
2013-10-01 00:40:00,55.6,53.6,30.01,WSW,249,0.0,0.0,93,0.00,,,0.00,Wunderground v.1.15,2013-10-01 04:40:00,
2013-10-01 00:42:00,55.4,53.1,30.01,WSW,249,0.0,0.0,92,0.00,,,0.00,Wunderground v.1.15,2013-10-01 04:42:00,
2013-10-01 00:43:00,55.4,53.4,30.01,WSW,249,0.0,0.0,93,0.00,,,0.00,Wunderground v.1.15,2013-10-01 04:43:00,
2013-10-01 00:45:00,55.4,53.4,30.01,WSW,249,0.0,1.0,93,0.00,,,0.00,Wunderground v.1.15,2013-10-01 04:45:00,
2013-10-01 00:47:00,55.4,53.4,30.01,WSW,249,0.0,1.0,93,0.00,,,0.00,Wunderground v.1.15,2013-10-01 04:47:00,
2013-10-01 00:48:00,55.4,53.4,30.01,WSW,249,0.0,1.0,93,0.00,,,0.00,Wunderground v.1.15,2013-10-01 04:48:00,
2013-10-01 00:49:00,55.4,53.4,30.01,WSW,249,0.0,2.0,93,0.00,,,0.00,Wunderground v.1.15,2013-10-01 04:49:00,
2013-10-01 00:50:00,55.4,53.4,30.01,WSW,249,0.0,0.0,93,0.00,,,0.00,Wunderground v.1.15,2013-10-01 04:50:00,
2013-10-01 00:53:00,55.4,53.4,30.01,WSW,249,0.0,1.0,93,0.00,,,0.00,Wunderground v.1.15,2013-10-01 04:53:00,
2013-10-01 00:54:00,55.4,53.4,30.01,WSW,249,0.0,1.0,93,0.00,,,0.00,Wunderground v.1.15,2013-10-01 04:54:00,
2013-10-01 00:55:00,55.4,53.4,30.01,WSW,249,0.0,1.0,93,0.00,,,0.00,Wunderground v.1.15,2013-10-01 04:55:00,
2013-10-01 00:58:00,55.4,53.4,30.01,WSW,249,0.0,1.0,93,0.00,,,0.00,Wunderground v.1.15,2013-10-01 04:58:00,
2013-10-01 01:00:00,55.3,53.3,30.01,WSW,249,0.0,0.0,93,0.00,,,0.00,Wunderground v.1.15,2013-10-01 05:00:00,
2013-10-01 01:03:00,55.3,53.3,30.01,WSW,249,0.0,1.0,93,0.00,,,0.00,Wunderground v.1.15,2013-10-01 05:03:00,
2013-10-01 01:05:00,55.3,53.3,30.01,WSW,249,0.0,1.0,93,0.00,,,0.00,Wunderground v.1.15,2013-10-01 05:05:00,
2013-10-01 01:06:00,55.3,53.3,30.01,WSW,249,1.0,2.0,93,0.00,,,0.00,Wunderground v.1.15,2013-10-01 05:06:00,
2013-10-01 01:08:00,55.1,53.1,30.01,WSW,249,0.0,2.0,93,0.00,,,0.00,Wunderground v.1.15,2013-10-01 05:08:00,
2013-10-01 01:10:00,55.1,53.1,30.01,WSW,249,0.0,0.0,93,0.00,,,0.00,Wunderground v.1.15,2013-10-01 05:10:00,
2013-10-01 01:11:00,55.1,53.1,30.01,WSW,249,0.0,0.0,93,0.00,,,0.00,Wunderground v.1.15,2013-10-01 05:11:00,
2013-10-01 01:14:00,55.1,53.1,30.01,WSW,249,0.0,1.0,93,0.00,,,0.00,Wunderground v.1.15,2013-10-01 05:14:00,
2013-10-01 01:15:00,55.1,53.1,30.01,WSW,249,0.0,1.0,93,0.00,,,0.00,Wunderground v.1.15,2013-10-01 05:15:00,
2013-10-01 01:16:00,55.1,53.1,30.01,WSW,249,0.0,1.0,93,0.00,,,0.00,Wunderground v.1.15,2013-10-01 05:16:00,
2013-10-01 01:19:00,55.1,53.1,30.01,WSW,249,0.0,1.0,93,0.00,,,0.00,Wunderground v.1.15,2013-10-01 05:19:00,
2013-10-01 01:21:00,55.0,53.0,30.01,WSW,249,0.0,0.0,93,0.00,,,0.00,Wunderground v.1.15,2013-10-01 05:21:00,
2013-10-01 01:24:00,55.0,53.0,30.01,WSW,249,0.0,0.0,93,0.00,,,0.00,Wunderground v.1.15,2013-10-01 05:24:00,
2013-10-01 01:26:00,55.0,53.0,30.01,WSW,249,0.0,1.0,93,0.00,,,0.00,Wunderground v.1.15,2013-10-01 05:26:00,
2013-10-01 01:27:00,55.0,53.0,30.01,WSW,249,0.0,1.0,93,0.00,,,0.00,Wunderground v.1.15,2013-10-01 05:27:00,
2013-10-01 01:29:00,55.0,53.0,30.01,WSW,249,1.0,2.0,93,0.00,,,0.00,Wunderground v.1.15,2013-10-01 05:29:00,
2013-10-01 01:31:00,55.0,53.0,30.01,WSW,249,0.0,0.0,93,0.00,,,0.00,Wunderground v.1.15,2013-10-01 05:31:00,
2013-10-01 01:32:00,55.0,53.0,30.01,WSW,249,0.0,0.0,93,0.00,,,0.00,Wunderground v.1.15,2013-10-01 05:32:00,
2013-10-01 01:35:00,55.0,53.0,30.01,WSW,249,0.0,2.0,93,0.00,,,0.00,Wunderground v.1.15,2013-10-01 05:35:00,
2013-10-01 01:36:00,55.0,53.0,30.01,WSW,249,0.0,2.0,93,0.00,,,0.00,Wunderground v.1.15,2013-10-01 05:36:00,
2013-10-01 01:37:00,55.0,53.0,30.01,WSW,249,0.0,2.0,93,0.00,,,0.00,Wunderground v.1.15,2013-10-01 05:37:00,
2013-10-01 01:38:00,55.0,53.0,30.01,North,355,0.0,2.0,93,0.00,,,0.00,Wunderground v.1.15,2013-10-01 05:38:00,
2013-10-01 01:41:00,55.0,53.0,30.01,North,355,0.0,0.0,93,0.00,,,0.00,Wunderground v.1.15,2013-10-01 05:41:00,
2013-10-01 01:42:00,55.0,53.0,30.01,North,355,0.0,0.0,93,0.00,,,0.00,Wunderground v.1.15,2013-10-01 05:42:00,
2013-10-01 01:44:00,55.1,53.1,30.01,North,355,0.0,1.0,93,0.00,,,0.00,Wunderground v.1.15,2013-10-01 05:44:00,
2013-10-01 01:46:00,55.1,52.8,30.01,NNW,348,0.0,2.0,92,0.00,,,0.00,Wunderground v.1.15,2013-10-01 05:46:00,
2013-10-01 01:47:00,55.1,53.1,30.01,NNW,348,0.0,3.0,93,0.00,,,0.00,Wunderground v.1.15,2013-10-01 05:47:00,
2013-10-01 01:49:00,55.1,52.8,30.01,NNW,348,0.0,3.0,92,0.00,,,0.00,Wunderground v.1.15,2013-10-01 05:49:00,
2013-10-01 01:51:00,55.1,52.8,30.01,NNW,348,0.0,0.0,92,0.00,,,0.00,Wunderground v.1.15,2013-10-01 05:51:00,
2013-10-01 01:52:00,55.1,52.8,30.01,NNW,348,0.0,0.0,92,0.00,,,0.00,Wunderground v.1.15,2013-10-01 05:52:00,
2013-10-01 01:53:00,55.1,52.8,30.01,NNW,348,0.0,1.0,92,0.00,,,0.00,Wunderground v.1.15,2013-10-01 05:53:00,
2013-10-01 01:54:00,55.1,52.8,30.01,NNW,348,0.0,1.0,92,0.00,,,0.00,Wunderground v.1.15,2013-10-01 05:54:00,
2013-10-01 01:57:00,55.1,52.8,30.01,NNW,348,0.0,1.0,92,0.00,,,0.00,Wunderground v.1.15,2013-10-01 05:57:00,
2013-10-01 01:59:00,55.1,52.8,30.01,NNW,348,0.0,1.0,92,0.00,,,0.00,Wunderground v.1.15,2013-10-01 05:59:00,
2013-10-01 02:00:00,55.1,52.8,30.01,West,262,1.0,1.0,92,0.00,,,0.00,Wunderground v.1.15,2013-10-01 06:00:00,
2013-10-01 02:02:00,55.1,52.8,30.01,West,262,0.0,1.0,92,0.00,,,0.00,Wunderground v.1.15,2013-10-01 06:02:00,
2013-10-01 02:04:00,55.1,52.8,30.01,West,262,0.0,1.0,92,0.00,,,0.00,Wunderground v.1.15,2013-10-01 06:04:00,
2013-10-01 02:06:00,55.1,52.8,30.01,West,263,0.0,2.0,92,0.00,,,0.00,Wunderground v.1.15,2013-10-01 06:06:00,
2013-10-01 02:07:00,55.1,52.8,30.01,West,263,0.0,2.0,92,0.00,,,0.00,Wunderground v.1.15,2013-10-01 06:07:00,
2013-10-01 02:08:00,55.1,52.8,30.01,SW,232,0.0,2.0,92,0.00,,,0.00,Wunderground v.1.15,2013-10-01 06:08:00,
2013-10-01 02:09:00,55.1,52.8,30.01,SW,221,2.0,2.0,92,0.00,,,0.00,Wunderground v.1.15,2013-10-01 06:09:00,
2013-10-01 02:11:00,55.3,53.0,30.01,SW,221,0.0,0.0,92,0.00,,,0.00,Wunderground v.1.15,2013-10-01 06:11:00,
2013-10-01 02:13:00,55.3,53.0,30.01,SW,221,0.0,1.0,92,0.00,,,0.00,Wunderground v.1.15,2013-10-01 06:13:00,
2013-10-01 02:15:00,55.3,53.0,30.01,SW,223,0.0,2.0,92,0.00,,,0.00,Wunderground v.1.15,2013-10-01 06:15:00,
2013-10-01 02:16:00,55.3,53.0,30.01,SW,223,0.0,2.0,92,0.00,,,0.00,Wunderground v.1.15,2013-10-01 06:16:00,
2013-10-01 02:18:00,55.3,53.0,30.01,SW,223,0.0,2.0,92,0.00,,,0.00,Wunderground v.1.15,2013-10-01 06:18:00,
2013-10-01 02:20:00,55.3,52.7,30.01,SW,225,1.0,2.0,91,0.00,,,0.00,Wunderground v.1.15,2013-10-01 06:20:00,
2013-10-01 02:21:00,55.3,52.7,30.01,SW,232,1.0,2.0,91,0.00,,,0.00,Wunderground v.1.15,2013-10-01 06:21:00,
2013-10-01 02:23:00,55.3,52.7,30.01,SW,232,0.0,2.0,91,0.00,,,0.00,Wunderground v.1.15,2013-10-01 06:23:00,
2013-10-01 02:25:00,55.3,52.7,30.01,SW,232,0.0,2.0,91,0.00,,,0.00,Wunderground v.1.15,2013-10-01 06:25:00,
2013-10-01 02:26:00,55.3,52.7,30.01,SW,232,0.0,2.0,91,0.00,,,0.00,Wunderground v.1.15,2013-10-01 06:26:00,
2013-10-01 02:28:00,55.3,52.7,30.01,SW,232,0.0,2.0,91,0.00,,,0.00,Wunderground v.1.15,2013-10-01 06:28:00,
2013-10-01 02:29:00,55.3,52.7,30.01,SW,232,0.0,2.0,91,0.00,,,0.00,Wunderground v.1.15,2013-10-01 06:29:00,
2013-10-01 02:30:00,55.3,52.7,30.01,WNW,285,0.0,4.0,91,0.00,,,0.00,Wunderground v.1.15,2013-10-01 06:30:00,
2013-10-01 02:31:00,55.3,52.7,30.01,WNW,285,0.0,4.0,91,0.00,,,0.00,Wunderground v.1.15,2013-10-01 06:31:00,
2013-10-01 02:33:00,55.3,52.7,30.00,WNW,285,0.0,4.0,91,0.00,,,0.00,Wunderground v.1.15,2013-10-01 06:33:00,
2013-10-01 02:34:00,55.3,52.7,30.00,WNW,285,0.0,4.0,91,0.00,,,0.00,Wunderground v.1.15,2013-10-01 06:34:00,
2013-10-01 02:36:00,55.3,52.7,30.01,WNW,285,0.0,4.0,91,0.00,,,0.00,Wunderground v.1.15,2013-10-01 06:36:00,
2013-10-01 02:37:00,55.3,52.7,30.01,WNW,285,0.0,4.0,91,0.00,,,0.00,Wunderground v.1.15,2013-10-01 06:37:00,
2013-10-01 02:39:00,55.3,52.4,30.01,WNW,285,0.0,4.0,90,0.00,,,0.00,Wunderground v.1.15,2013-10-01 06:39:00,
2013-10-01 02:41:00,55.3,52.4,30.01,WNW,285,0.0,0.0,90,0.00,,,0.00,Wunderground v.1.15,2013-10-01 06:41:00,
2013-10-01 02:42:00,55.3,52.4,30.01,WNW,285,0.0,1.0,90,0.00,,,0.00,Wunderground v.1.15,2013-10-01 06:42:00,
2013-10-01 02:44:00,55.3,52.4,30.01,WNW,285,0.0,1.0,90,0.00,,,0.00,Wunderground v.1.15,2013-10-01 06:44:00,
2013-10-01 02:46:00,55.4,52.5,30.00,WNW,285,0.0,3.0,90,0.00,,,0.00,Wunderground v.1.15,2013-10-01 06:46:00,
2013-10-01 02:47:00,55.4,52.8,30.00,WNW,285,1.0,3.0,91,0.00,,,0.00,Wunderground v.1.15,2013-10-01 06:47:00,
2013-10-01 02:49:00,55.4,52.8,30.00,WNW,285,0.0,3.0,91,0.00,,,0.00,Wunderground v.1.15,2013-10-01 06:49:00,
2013-10-01 02:51:00,55.4,52.5,30.00,WNW,286,0.0,1.0,90,0.00,,,0.00,Wunderground v.1.15,2013-10-01 06:51:00,
2013-10-01 02:52:00,55.4,52.5,30.00,WNW,286,0.0,2.0,90,0.00,,,0.00,Wunderground v.1.15,2013-10-01 06:52:00,
2013-10-01 02:54:00,55.4,52.5,30.00,WNW,285,0.0,2.0,90,0.00,,,0.00,Wunderground v.1.15,2013-10-01 06:54:00,
2013-10-01 02:56:00,55.4,52.5,30.00,WNW,285,1.0,2.0,90,0.00,,,0.00,Wunderground v.1.15,2013-10-01 06:56:00,
2013-10-01 02:57:00,55.4,52.5,30.00,WNW,285,0.0,2.0,90,0.00,,,0.00,Wunderground v.1.15,2013-10-01 06:57:00,
2013-10-01 03:00:00,55.4,52.5,30.00,WNW,285,1.0,1.0,90,0.00,,,0.00,Wunderground v.1.15,2013-10-01 07:00:00,
2013-10-01 03:02:00,55.4,52.5,30.00,WNW,285,0.0,1.0,90,0.00,,,0.00,Wunderground v.1.15,2013-10-01 07:02:00,
2013-10-01 03:05:00,55.4,52.5,30.00,WNW,285,0.0,1.0,90,0.00,,,0.00,Wunderground v.1.15,2013-10-01 07:05:00,
2013-10-01 03:07:00,55.4,52.5,30.00,WNW,283,0.0,1.0,90,0.00,,,0.00,Wunderground v.1.15,2013-10-01 07:07:00,
2013-10-01 03:08:00,55.4,52.5,30.00,WNW,283,0.0,1.0,90,0.00,,,0.00,Wunderground v.1.15,2013-10-01 07:08:00,
2013-10-01 03:10:00,55.4,52.5,30.00,WNW,283,0.0,0.0,90,0.00,,,0.00,Wunderground v.1.15,2013-10-01 07:10:00,
2013-10-01 03:12:00,55.4,52.8,30.00,WNW,283,0.0,0.0,91,0.00,,,0.00,Wunderground v.1.15,2013-10-01 07:12:00,
2013-10-01 03:13:00,55.4,52.8,30.00,WNW,283,0.0,0.0,91,0.00,,,0.00,Wunderground v.1.15,2013-10-01 07:13:00,
2013-10-01 03:15:00,55.4,52.8,30.00,WNW,283,0.0,0.0,91,0.00,,,0.00,Wunderground v.1.15,2013-10-01 07:15:00,
2013-10-01 03:18:00,55.4,52.8,30.00,WSW,242,4.0,4.0,91,0.00,,,0.00,Wunderground v.1.15,2013-10-01 07:18:00,
2013-10-01 03:20:00,55.4,52.8,30.00,SW,230,0.0,0.0,91,0.00,,,0.00,Wunderground v.1.15,2013-10-01 07:20:00,
2013-10-01 03:23:00,55.4,52.8,30.00,SW,230,0.0,0.0,91,0.00,,,0.00,Wunderground v.1.15,2013-10-01 07:23:00,
2013-10-01 03:25:00,55.4,52.8,30.00,SW,230,0.0,1.0,91,0.00,,,0.00,Wunderground v.1.15,2013-10-01 07:25:00,
2013-10-01 03:28:00,55.4,52.8,30.00,SW,230,0.0,1.0,91,0.00,,,0.00,Wunderground v.1.15,2013-10-01 07:28:00,
2013-10-01 03:29:00,55.4,52.8,30.00,SW,230,0.0,1.0,91,0.00,,,0.00,Wunderground v.1.15,2013-10-01 07:29:00,
2013-10-01 03:30:00,55.4,52.8,30.00,SW,230,0.0,0.0,91,0.00,,,0.00,Wunderground v.1.15,2013-10-01 07:30:00,
2013-10-01 03:33:00,55.4,52.8,30.00,SW,233,0.0,2.0,91,0.00,,,0.00,Wunderground v.1.15,2013-10-01 07:33:00,
2013-10-01 03:34:00,55.4,52.8,30.00,SW,232,0.0,2.0,91,0.00,,,0.00,Wunderground v.1.15,2013-10-01 07:34:00,
2013-10-01 03:35:00,55.4,52.8,30.00,SW,232,0.0,2.0,91,0.00,,,0.00,Wunderground v.1.15,2013-10-01 07:35:00,
2013-10-01 03:38:00,55.4,52.8,30.00,SW,229,1.0,2.0,91,0.00,,,0.00,Wunderground v.1.15,2013-10-01 07:38:00,
2013-10-01 03:39:00,55.6,53.0,30.00,SW,229,0.0,2.0,91,0.00,,,0.00,Wunderground v.1.15,2013-10-01 07:39:00,
2013-10-01 03:41:00,55.6,53.0,30.00,WNW,286,0.0,4.0,91,0.00,,,0.00,Wunderground v.1.15,2013-10-01 07:41:00,
2013-10-01 03:44:00,55.6,53.0,30.00,WNW,286,0.0,4.0,91,0.00,,,0.00,Wunderground v.1.15,2013-10-01 07:44:00,
2013-10-01 03:46:00,55.6,53.0,30.00,WNW,286,0.0,4.0,91,0.00,,,0.00,Wunderground v.1.15,2013-10-01 07:46:00,
2013-10-01 03:49:00,55.7,53.1,30.00,WNW,286,0.0,4.0,91,0.00,,,0.00,Wunderground v.1.15,2013-10-01 07:49:00,
2013-10-01 03:51:00,55.7,53.1,30.00,WNW,286,0.0,2.0,91,0.00,,,0.00,Wunderground v.1.15,2013-10-01 07:51:00,
2013-10-01 03:55:00,55.7,53.1,30.00,West,280,0.0,4.0,91,0.00,,,0.00,Wunderground v.1.15,2013-10-01 07:55:00,
2013-10-01 03:57:00,55.6,53.0,30.00,West,279,0.0,4.0,91,0.00,,,0.00,Wunderground v.1.15,2013-10-01 07:57:00,
2013-10-01 04:00:00,55.6,53.0,30.00,West,279,0.0,0.0,91,0.00,,,0.00,Wunderground v.1.15,2013-10-01 08:00:00,
2013-10-01 04:02:00,55.6,53.0,30.00,West,279,0.0,2.0,91,0.00,,,0.00,Wunderground v.1.15,2013-10-01 08:02:00,
2013-10-01 04:05:00,55.4,52.8,30.00,West,279,0.0,2.0,91,0.00,,,0.00,Wunderground v.1.15,2013-10-01 08:05:00,
2013-10-01 04:08:00,55.4,52.8,30.00,West,279,0.0,2.0,91,0.00,,,0.00,Wunderground v.1.15,2013-10-01 08:08:00,
2013-10-01 04:10:00,55.4,52.8,30.00,West,279,0.0,0.0,91,0.00,,,0.00,Wunderground v.1.15,2013-10-01 08:10:00,
2013-10-01 04:13:00,55.4,52.8,30.00,West,279,0.0,3.0,91,0.00,,,0.00,Wunderground v.1.15,2013-10-01 08:13:00,
2013-10-01 04:15:00,55.4,52.8,30.00,West,279,0.0,3.0,91,0.00,,,0.00,Wunderground v.1.15,2013-10-01 08:15:00,
2013-10-01 04:18:00,55.4,52.8,30.00,West,279,0.0,3.0,91,0.00,,,0.00,Wunderground v.1.15,2013-10-01 08:18:00,
2013-10-01 04:20:00,55.4,52.8,30.00,West,279,0.0,0.0,91,0.00,,,0.00,Wunderground v.1.15,2013-10-01 08:20:00,
2013-10-01 04:21:00,55.4,52.8,30.00,West,279,0.0,0.0,91,0.00,,,0.00,Wunderground v.1.15,2013-10-01 08:21:00,
2013-10-01 04:23:00,55.4,52.8,30.00,West,279,0.0,3.0,91,0.00,,,0.00,Wunderground v.1.15,2013-10-01 08:23:00,
2013-10-01 04:25:00,55.4,52.8,30.00,West,279,0.0,3.0,91,0.00,,,0.00,Wunderground v.1.15,2013-10-01 08:25:00,
2013-10-01 04:26:00,55.3,52.7,30.00,West,279,0.0,3.0,91,0.00,,,0.00,Wunderground v.1.15,2013-10-01 08:26:00,
2013-10-01 04:29:00,55.3,52.7,30.00,West,279,0.0,3.0,91,0.00,,,0.00,Wunderground v.1.15,2013-10-01 08:29:00,
2013-10-01 04:30:00,55.3,52.7,30.00,West,279,0.0,1.0,91,0.00,,,0.00,Wunderground v.1.15,2013-10-01 08:30:00,
2013-10-01 04:31:00,55.3,52.7,30.00,West,279,1.0,1.0,91,0.00,,,0.00,Wunderground v.1.15,2013-10-01 08:31:00,
2013-10-01 04:34:00,55.3,52.7,30.00,West,279,0.0,1.0,91,0.00,,,0.00,Wunderground v.1.15,2013-10-01 08:34:00,
2013-10-01 04:35:00,55.3,52.7,30.00,West,279,0.0,1.0,91,0.00,,,0.00,Wunderground v.1.15,2013-10-01 08:35:00,
2013-10-01 04:36:00,55.3,52.7,30.00,West,279,0.0,1.0,91,0.00,,,0.00,Wunderground v.1.15,2013-10-01 08:36:00,
2013-10-01 04:39:00,55.3,52.7,30.00,West,279,0.0,1.0,91,0.00,,,0.00,Wunderground v.1.15,2013-10-01 08:39:00,
2013-10-01 04:40:00,55.1,52.5,30.00,West,279,0.0,1.0,91,0.00,,,0.00,Wunderground v.1.15,2013-10-01 08:40:00,
2013-10-01 04:42:00,55.1,52.5,30.00,West,279,0.0,1.0,91,0.00,,,0.00,Wunderground v.1.15,2013-10-01 08:42:00,
2013-10-01 04:44:00,55.1,52.5,30.00,West,279,0.0,1.0,91,0.00,,,0.00,Wunderground v.1.15,2013-10-01 08:44:00,
2013-10-01 04:45:00,55.1,52.5,30.00,West,279,0.0,1.0,91,0.00,,,0.00,Wunderground v.1.15,2013-10-01 08:45:00,
2013-10-01 04:47:00,55.1,52.5,30.00,West,279,0.0,1.0,91,0.00,,,0.00,Wunderground v.1.15,2013-10-01 08:47:00,
2013-10-01 04:49:00,55.1,52.5,30.00,West,279,0.0,1.0,91,0.00,,,0.00,Wunderground v.1.15,2013-10-01 08:49:00,
2013-10-01 04:51:00,55.1,52.5,30.00,West,279,0.0,0.0,91,0.00,,,0.00,Wunderground v.1.15,2013-10-01 08:51:00,
2013-10-01 04:52:00,55.1,52.5,30.00,West,279,0.0,0.0,91,0.00,,,0.00,Wunderground v.1.15,2013-10-01 08:52:00,
2013-10-01 04:54:00,55.1,52.5,30.00,West,279,0.0,0.0,91,0.00,,,0.00,Wunderground v.1.15,2013-10-01 08:54:00,
2013-10-01 04:56:00,55.1,52.5,30.00,West,279,0.0,0.0,91,0.00,,,0.00,Wunderground v.1.15,2013-10-01 08:56:00,
2013-10-01 04:57:00,55.1,52.5,30.00,West,279,0.0,0.0,91,0.00,,,0.00,Wunderground v.1.15,2013-10-01 08:57:00,
2013-10-01 04:59:00,55.1,52.5,30.00,West,279,0.0,1.0,91,0.00,,,0.00,Wunderground v.1.15,2013-10-01 08:59:00,
2013-10-01 05:01:00,55.1,52.5,30.00,West,279,0.0,0.0,91,0.00,,,0.00,Wunderground v.1.15,2013-10-01 09:01:00,
2013-10-01 05:02:00,55.1,52.5,30.00,West,279,0.0,1.0,91,0.00,,,0.00,Wunderground v.1.15,2013-10-01 09:02:00,
2013-10-01 05:05:00,55.1,52.5,30.00,West,279,0.0,1.0,91,0.00,,,0.00,Wunderground v.1.15,2013-10-01 09:05:00,
2013-10-01 05:06:00,55.3,52.7,30.00,West,279,0.0,1.0,91,0.00,,,0.00,Wunderground v.1.15,2013-10-01 09:06:00,
2013-10-01 05:07:00,55.3,52.7,30.00,West,279,0.0,1.0,91,0.00,,,0.00,Wunderground v.1.15,2013-10-01 09:07:00,
2013-10-01 05:11:00,55.3,52.7,30.00,West,275,0.0,4.0,91,0.00,,,0.00,Wunderground v.1.15,2013-10-01 09:11:00,
2013-10-01 05:12:00,55.3,52.7,30.00,West,275,0.0,4.0,91,0.00,,,0.00,Wunderground v.1.15,2013-10-01 09:12:00,
2013-10-01 05:16:00,55.3,52.7,30.00,West,275,0.0,4.0,91,0.00,,,0.00,Wunderground v.1.15,2013-10-01 09:16:00,
2013-10-01 05:18:00,55.3,52.7,30.00,West,275,0.0,4.0,91,0.00,,,0.00,Wunderground v.1.15,2013-10-01 09:18:00,
2013-10-01 05:21:00,55.3,52.4,30.00,West,275,0.0,1.0,90,0.00,,,0.00,Wunderground v.1.15,2013-10-01 09:21:00,
2013-10-01 05:23:00,55.1,52.5,30.00,West,275,0.0,1.0,91,0.00,,,0.00,Wunderground v.1.15,2013-10-01 09:23:00,
2013-10-01 05:26:00,55.1,52.2,30.00,WSW,255,2.0,4.0,90,0.00,,,0.00,Wunderground v.1.15,2013-10-01 09:26:00,
2013-10-01 05:27:00,55.1,52.2,30.00,WSW,254,0.0,4.0,90,0.00,,,0.00,Wunderground v.1.15,2013-10-01 09:27:00,
2013-10-01 05:28:00,55.1,52.2,30.00,WSW,254,0.0,4.0,90,0.00,,,0.00,Wunderground v.1.15,2013-10-01 09:28:00,
2013-10-01 05:31:00,55.1,52.2,30.00,WSW,254,0.0,0.0,90,0.00,,,0.00,Wunderground v.1.15,2013-10-01 09:31:00,
2013-10-01 05:32:00,55.1,52.2,30.01,WSW,252,0.0,3.0,90,0.00,,,0.00,Wunderground v.1.15,2013-10-01 09:32:00,
2013-10-01 05:33:00,55.1,52.2,30.01,WSW,252,0.0,3.0,90,0.00,,,0.00,Wunderground v.1.15,2013-10-01 09:33:00,
2013-10-01 05:36:00,55.1,52.2,30.01,WSW,252,0.0,3.0,90,0.00,,,0.00,Wunderground v.1.15,2013-10-01 09:36:00,
2013-10-01 05:38:00,55.1,52.2,30.01,WSW,252,0.0,3.0,90,0.00,,,0.00,Wunderground v.1.15,2013-10-01 09:38:00,
2013-10-01 05:41:00,55.1,52.2,30.01,WSW,252,0.0,2.0,90,0.00,,,0.00,Wunderground v.1.15,2013-10-01 09:41:00,
2013-10-01 05:43:00,55.1,52.2,30.01,WSW,252,0.0,2.0,90,0.00,,,0.00,Wunderground v.1.15,2013-10-01 09:43:00,
2013-10-01 05:47:00,55.0,52.1,30.01,WSW,252,0.0,2.0,90,0.00,,,0.00,Wunderground v.1.15,2013-10-01 09:47:00,
2013-10-01 05:48:00,55.0,52.1,30.01,WSW,252,0.0,2.0,90,0.00,,,0.00,Wunderground v.1.15,2013-10-01 09:48:00,
2013-10-01 05:52:00,55.0,52.1,30.01,WSW,252,0.0,0.0,90,0.00,,,0.00,Wunderground v.1.15,2013-10-01 09:52:00,
2013-10-01 05:53:00,55.0,52.1,30.01,WSW,252,0.0,1.0,90,0.00,,,0.00,Wunderground v.1.15,2013-10-01 09:53:00,
2013-10-01 05:54:00,55.0,52.1,30.01,WSW,252,0.0,1.0,90,0.00,,,0.00,Wunderground v.1.15,2013-10-01 09:54:00,
2013-10-01 05:57:00,55.0,52.1,30.01,WSW,252,0.0,1.0,90,0.00,,,0.00,Wunderground v.1.15,2013-10-01 09:57:00,
2013-10-01 05:58:00,55.0,52.1,30.01,WSW,252,0.0,2.0,90,0.00,,,0.00,Wunderground v.1.15,2013-10-01 09:58:00,
2013-10-01 05:59:00,55.0,52.1,30.01,WSW,252,0.0,2.0,90,0.00,,,0.00,Wunderground v.1.15,2013-10-01 09:59:00,
2013-10-01 06:02:00,55.0,52.1,30.01,WSW,252,0.0,1.0,90,0.00,,,0.00,Wunderground v.1.15,2013-10-01 10:02:00,
2013-10-01 06:03:00,55.0,52.1,30.01,WSW,252,0.0,1.0,90,0.00,,,0.00,Wunderground v.1.15,2013-10-01 10:03:00,
2013-10-01 06:04:00,55.0,52.1,30.01,WSW,252,0.0,1.0,90,0.00,,,0.00,Wunderground v.1.15,2013-10-01 10:04:00,
2013-10-01 06:07:00,55.0,52.1,30.01,WSW,252,0.0,1.0,90,0.00,,,0.00,Wunderground v.1.15,2013-10-01 10:07:00,
2013-10-01 06:09:00,55.0,52.1,30.01,WSW,252,0.0,2.0,90,0.00,,,0.00,Wunderground v.1.15,2013-10-01 10:09:00,
2013-10-01 06:12:00,55.0,52.1,30.01,WSW,253,1.0,3.0,90,0.00,,,0.00,Wunderground v.1.15,2013-10-01 10:12:00,
2013-10-01 06:14:00,55.0,52.1,30.01,WSW,253,0.0,3.0,90,0.00,,,0.00,Wunderground v.1.15,2013-10-01 10:14:00,
2013-10-01 06:17:00,55.1,52.2,30.01,WSW,253,0.0,3.0,90,0.00,,,0.00,Wunderground v.1.15,2013-10-01 10:17:00,
2013-10-01 06:19:00,55.0,52.1,30.01,WSW,253,0.0,3.0,90,0.00,,,0.00,Wunderground v.1.15,2013-10-01 10:19:00,
2013-10-01 06:22:00,55.0,52.1,30.01,WSW,253,0.0,1.0,90,0.00,,,0.00,Wunderground v.1.15,2013-10-01 10:22:00,
2013-10-01 06:24:00,55.0,52.1,30.01,WSW,253,0.0,1.0,90,0.00,,,0.00,Wunderground v.1.15,2013-10-01 10:24:00,
2013-10-01 06:25:00,55.0,52.1,30.01,WSW,253,0.0,1.0,90,0.00,,,0.00,Wunderground v.1.15,2013-10-01 10:25:00,
2013-10-01 06:27:00,55.0,52.1,30.01,WSW,253,0.0,1.0,90,0.00,,,0.00,Wunderground v.1.15,2013-10-01 10:27:00,
2013-10-01 06:29:00,55.0,52.1,30.01,WSW,253,0.0,0.0,90,0.00,,,0.00,Wunderground v.1.15,2013-10-01 10:29:00,
2013-10-01 06:30:00,55.0,52.1,30.01,WSW,253,0.0,0.0,90,0.00,,,0.00,Wunderground v.1.15,2013-10-01 10:30:00,
2013-10-01 06:32:00,55.0,52.1,30.01,WSW,253,0.0,0.0,90,0.00,,,0.00,Wunderground v.1.15,2013-10-01 10:32:00,
2013-10-01 06:35:00,55.0,52.1,30.01,WSW,253,0.0,2.0,90,0.00,,,0.00,Wunderground v.1.15,2013-10-01 10:35:00,
2013-10-01 06:36:00,55.0,52.1,30.01,WSW,253,0.0,2.0,90,0.00,,,0.00,Wunderground v.1.15,2013-10-01 10:36:00,
2013-10-01 06:38:00,55.0,52.1,30.01,WSW,253,0.0,2.0,90,0.00,,,0.00,Wunderground v.1.15,2013-10-01 10:38:00,
2013-10-01 06:40:00,55.0,52.1,30.01,WSW,253,0.0,0.0,90,0.00,,,0.00,Wunderground v.1.15,2013-10-01 10:40:00,
2013-10-01 06:41:00,55.0,52.1,30.01,WSW,253,0.0,0.0,90,0.00,,,0.00,Wunderground v.1.15,2013-10-01 10:41:00,
2013-10-01 06:43:00,55.0,52.1,30.01,WSW,253,0.0,0.0,90,0.00,,,0.00,Wunderground v.1.15,2013-10-01 10:43:00,
2013-10-01 06:45:00,55.0,52.1,30.01,WSW,253,0.0,1.0,90,0.00,,,0.00,Wunderground v.1.15,2013-10-01 10:45:00,
2013-10-01 06:47:00,55.0,52.1,30.01,WSW,254,0.0,2.0,90,0.00,,,0.00,Wunderground v.1.15,2013-10-01 10:47:00,
2013-10-01 06:48:00,55.0,52.1,30.01,WSW,254,0.0,2.0,90,0.00,,,0.00,Wunderground v.1.15,2013-10-01 10:48:00,
2013-10-01 06:50:00,55.0,52.1,30.01,WSW,254,0.0,0.0,90,0.00,,,0.00,Wunderground v.1.15,2013-10-01 10:50:00,
2013-10-01 06:52:00,55.0,52.1,30.01,WSW,254,0.0,1.0,90,0.00,,,0.00,Wunderground v.1.15,2013-10-01 10:52:00,
2013-10-01 06:53:00,55.0,52.1,30.01,West,280,0.0,1.0,90,0.00,,,0.01,Wunderground v.1.15,2013-10-01 10:53:00,
2013-10-01 06:55:00,55.0,52.1,30.01,West,280,0.0,1.0,90,0.00,,,0.01,Wunderground v.1.15,2013-10-01 10:55:00,
2013-10-01 06:57:00,55.0,52.1,30.01,West,280,0.0,1.0,90,0.00,,,0.01,Wunderground v.1.15,2013-10-01 10:57:00,
2013-10-01 06:58:00,55.0,52.1,30.01,West,280,0.0,3.0,90,0.00,,,0.01,Wunderground v.1.15,2013-10-01 10:58:00,
2013-10-01 07:00:00,55.1,52.2,30.01,West,279,0.0,2.0,90,0.00,,,0.01,Wunderground v.1.15,2013-10-01 11:00:00,
2013-10-01 07:02:00,55.1,52.2,30.01,West,279,0.0,2.0,90,0.00,,,0.01,Wunderground v.1.15,2013-10-01 11:02:00,
2013-10-01 07:04:00,55.1,52.2,30.01,West,279,0.0,2.0,90,0.00,,,0.01,Wunderground v.1.15,2013-10-01 11:04:00,
2013-10-01 07:05:00,55.1,52.2,30.01,West,279,0.0,2.0,90,0.00,,,0.01,Wunderground v.1.15,2013-10-01 11:05:00,
2013-10-01 07:07:00,55.1,52.2,30.02,West,279,0.0,2.0,90,0.00,,,0.01,Wunderground v.1.15,2013-10-01 11:07:00,
2013-10-01 07:09:00,55.1,52.2,30.02,West,279,0.0,2.0,90,0.00,,,0.01,Wunderground v.1.15,2013-10-01 11:09:00,
2013-10-01 07:10:00,55.1,52.2,30.02,West,279,1.0,3.0,90,0.00,,,0.01,Wunderground v.1.15,2013-10-01 11:10:00,
2013-10-01 07:12:00,55.1,52.2,30.02,West,281,0.0,3.0,90,0.00,,,0.01,Wunderground v.1.15,2013-10-01 11:12:00,
2013-10-01 07:14:00,55.3,52.4,30.02,West,281,0.0,3.0,90,0.00,,,0.01,Wunderground v.1.15,2013-10-01 11:14:00,
2013-10-01 07:16:00,55.3,52.4,30.02,NW,312,0.0,4.0,90,0.00,,,0.01,Wunderground v.1.15,2013-10-01 11:16:00,
2013-10-01 07:18:00,55.3,52.4,30.02,NW,312,0.0,4.0,90,0.00,,,0.01,Wunderground v.1.15,2013-10-01 11:18:00,
2013-10-01 07:19:00,55.4,52.5,30.02,NW,312,0.0,4.0,90,0.00,,,0.01,Wunderground v.1.15,2013-10-01 11:19:00,
2013-10-01 07:21:00,55.4,52.5,30.02,SW,234,1.0,4.0,90,0.00,,,0.01,Wunderground v.1.15,2013-10-01 11:21:00,
2013-10-01 07:23:00,55.4,52.2,30.02,SW,234,2.0,4.0,89,0.00,,,0.01,Wunderground v.1.15,2013-10-01 11:23:00,
2013-10-01 07:24:00,55.6,52.4,30.01,WSW,238,2.0,4.0,89,0.00,,,0.01,Wunderground v.1.15,2013-10-01 11:24:00,
2013-10-01 07:26:00,55.6,52.4,30.02,NW,321,0.0,4.0,89,0.00,,,0.01,Wunderground v.1.15,2013-10-01 11:26:00,
2013-10-01 07:29:00,55.6,52.4,30.02,NW,321,0.0,4.0,89,0.00,,,0.01,Wunderground v.1.15,2013-10-01 11:29:00,
2013-10-01 07:31:00,55.7,52.5,30.02,NW,321,0.0,2.0,89,0.00,,,0.01,Wunderground v.1.15,2013-10-01 11:31:00,
2013-10-01 07:34:00,55.7,52.5,30.01,NW,321,0.0,2.0,89,0.00,,,0.01,Wunderground v.1.15,2013-10-01 11:34:00,
2013-10-01 07:36:00,55.7,52.5,30.02,NW,321,0.0,2.0,89,0.00,,,0.01,Wunderground v.1.15,2013-10-01 11:36:00,
2013-10-01 07:39:00,55.9,52.7,30.02,NW,320,0.0,6.0,89,0.00,,,0.00,Wunderground v.1.15,2013-10-01 11:39:00,
2013-10-01 07:42:00,55.9,52.4,30.02,NW,311,0.0,3.0,88,0.00,,,0.00,Wunderground v.1.15,2013-10-01 11:42:00,
2013-10-01 07:44:00,56.0,52.5,30.02,NW,309,2.0,4.0,88,0.00,,,0.00,Wunderground v.1.15,2013-10-01 11:44:00,
2013-10-01 07:45:00,56.0,52.5,30.02,NW,309,1.0,4.0,88,0.00,,,0.00,Wunderground v.1.15,2013-10-01 11:45:00,
2013-10-01 07:47:00,56.2,52.7,30.02,WNW,282,0.0,4.0,88,0.00,,,0.00,Wunderground v.1.15,2013-10-01 11:47:00,
2013-10-01 07:49:00,56.2,52.7,30.02,WNW,282,0.0,4.0,88,0.00,,,0.00,Wunderground v.1.15,2013-10-01 11:49:00,
2013-10-01 07:50:00,56.2,52.7,30.02,WNW,282,1.0,2.0,88,0.00,,,0.00,Wunderground v.1.15,2013-10-01 11:50:00,
2013-10-01 07:53:00,56.3,52.8,30.02,WNW,282,0.0,2.0,88,0.00,,,0.00,Wunderground v.1.15,2013-10-01 11:53:00,
2013-10-01 07:55:00,56.5,53.0,30.02,WNW,282,0.0,2.0,88,0.00,,,0.00,Wunderground v.1.15,2013-10-01 11:55:00,
2013-10-01 07:58:00,56.6,52.8,30.02,WNW,284,0.0,3.0,87,0.00,,,0.00,Wunderground v.1.15,2013-10-01 11:58:00,
2013-10-01 08:00:00,56.6,52.8,30.02,WNW,284,0.0,0.0,87,0.00,,,0.00,Wunderground v.1.15,2013-10-01 12:00:00,
2013-10-01 08:04:00,56.9,53.1,30.01,WNW,298,0.0,3.0,87,0.00,,,0.00,Wunderground v.1.15,2013-10-01 12:04:00,
2013-10-01 08:05:00,56.9,53.1,30.02,WNW,298,0.0,3.0,87,0.00,,,0.00,Wunderground v.1.15,2013-10-01 12:05:00,
2013-10-01 08:06:00,56.9,53.1,30.02,WNW,298,0.0,3.0,87,0.00,,,0.00,Wunderground v.1.15,2013-10-01 12:06:00,
2013-10-01 08:09:00,57.2,53.0,30.02,WNW,290,0.0,5.0,86,0.00,,,0.00,Wunderground v.1.15,2013-10-01 12:09:00,
2013-10-01 08:10:00,57.2,53.0,30.02,West,264,3.0,3.0,86,0.00,,,0.00,Wunderground v.1.15,2013-10-01 12:10:00,
2013-10-01 08:13:00,57.3,52.8,30.02,WNW,296,1.0,3.0,85,0.00,,,0.00,Wunderground v.1.15,2013-10-01 12:13:00,
2013-10-01 08:14:00,57.5,53.0,30.02,WNW,296,0.0,3.0,85,0.00,,,0.00,Wunderground v.1.15,2013-10-01 12:14:00,
2013-10-01 08:16:00,57.5,53.0,30.02,WNW,303,4.0,4.0,85,0.00,,,0.00,Wunderground v.1.15,2013-10-01 12:16:00,
2013-10-01 08:18:00,57.6,53.1,30.02,WNW,300,0.0,4.0,85,0.00,,,0.00,Wunderground v.1.15,2013-10-01 12:18:00,
2013-10-01 08:19:00,57.8,53.3,30.02,WNW,300,0.0,4.0,85,0.00,,,0.00,Wunderground v.1.15,2013-10-01 12:19:00,
2013-10-01 08:21:00,58.0,53.2,30.02,WNW,298,1.0,3.0,84,0.00,,,0.00,Wunderground v.1.15,2013-10-01 12:21:00,
2013-10-01 08:23:00,58.1,53.3,30.02,WNW,300,1.0,3.0,84,0.00,,,0.00,Wunderground v.1.15,2013-10-01 12:23:00,
2013-10-01 08:25:00,58.1,53.3,30.02,WNW,301,0.0,3.0,84,0.00,,,0.00,Wunderground v.1.15,2013-10-01 12:25:00,
2013-10-01 08:27:00,58.3,53.2,30.02,WNW,301,0.0,3.0,83,0.00,,,0.00,Wunderground v.1.15,2013-10-01 12:27:00,
2013-10-01 08:28:00,58.4,53.3,30.02,WNW,301,0.0,3.0,83,0.00,,,0.00,Wunderground v.1.15,2013-10-01 12:28:00,
2013-10-01 08:30:00,58.6,53.5,30.02,WSW,242,0.0,1.0,83,0.00,,,0.00,Wunderground v.1.15,2013-10-01 12:30:00,
2013-10-01 08:32:00,58.9,53.7,30.02,WSW,245,1.0,2.0,83,0.00,,,0.00,Wunderground v.1.15,2013-10-01 12:32:00,
2013-10-01 08:33:00,59.0,53.8,30.02,NW,306,4.0,4.0,83,0.00,,,0.00,Wunderground v.1.15,2013-10-01 12:33:00,
2013-10-01 08:35:00,59.2,53.7,30.02,NW,304,2.0,7.0,82,0.00,,,0.00,Wunderground v.1.15,2013-10-01 12:35:00,
2013-10-01 08:38:00,59.3,53.5,30.02,WNW,301,0.0,7.0,81,0.00,,,0.00,Wunderground v.1.15,2013-10-01 12:38:00,
2013-10-01 08:39:00,59.3,53.5,30.02,NW,325,4.0,7.0,81,0.00,,,0.00,Wunderground v.1.15,2013-10-01 12:39:00,
2013-10-01 08:41:00,59.5,53.7,30.02,SW,228,0.0,3.0,81,0.00,,,0.00,Wunderground v.1.15,2013-10-01 12:41:00,
2013-10-01 08:43:00,59.6,53.8,30.02,NW,304,4.0,4.0,81,0.00,,,0.00,Wunderground v.1.15,2013-10-01 12:43:00,
2013-10-01 08:44:00,59.6,53.8,30.02,WNW,290,6.0,7.0,81,0.00,,,0.00,Wunderground v.1.15,2013-10-01 12:44:00,
2013-10-01 08:46:00,59.8,53.6,30.02,WNW,294,2.0,7.0,80,0.00,,,0.00,Wunderground v.1.15,2013-10-01 12:46:00,
2013-10-01 08:49:00,59.8,53.6,30.02,NW,322,7.0,7.0,80,0.00,,,0.00,Wunderground v.1.15,2013-10-01 12:49:00,
2013-10-01 08:51:00,59.9,53.7,30.02,NNW,327,3.0,4.0,80,0.00,,,0.00,Wunderground v.1.15,2013-10-01 12:51:00,
2013-10-01 08:54:00,60.1,53.9,30.02,WNW,302,3.0,6.0,80,0.00,,,0.00,Wunderground v.1.15,2013-10-01 12:54:00,
2013-10-01 08:56:00,60.1,53.9,30.02,NW,308,0.0,6.0,80,0.00,,,0.00,Wunderground v.1.15,2013-10-01 12:56:00,
2013-10-01 08:59:00,60.2,54.0,30.02,WNW,286,3.0,6.0,80,0.00,,,0.00,Wunderground v.1.15,2013-10-01 12:59:00,
2013-10-01 09:01:00,60.4,54.2,30.02,NW,314,3.0,5.0,80,0.00,,,0.00,Wunderground v.1.15,2013-10-01 13:01:00,
2013-10-01 09:04:00,60.5,54.0,30.02,WNW,302,0.0,6.0,79,0.00,,,0.00,Wunderground v.1.15,2013-10-01 13:04:00,
2013-10-01 09:06:00,60.7,54.1,30.02,WNW,300,2.0,9.0,79,0.00,,,0.00,Wunderground v.1.15,2013-10-01 13:06:00,
2013-10-01 09:09:00,61.0,54.4,30.02,NW,317,1.0,9.0,79,0.00,,,0.00,Wunderground v.1.15,2013-10-01 13:09:00,
2013-10-01 09:12:00,61.2,54.6,30.02,NW,318,5.0,7.0,79,0.00,,,0.00,Wunderground v.1.15,2013-10-01 13:12:00,
2013-10-01 09:14:00,61.3,54.4,30.02,NW,309,2.0,8.0,78,0.00,,,0.00,Wunderground v.1.15,2013-10-01 13:14:00,
2013-10-01 09:15:00,61.5,54.6,30.02,NNW,329,0.0,8.0,78,0.00,,,0.00,Wunderground v.1.15,2013-10-01 13:15:00,
2013-10-01 09:17:00,61.6,54.7,30.02,WNW,299,0.0,8.0,78,0.00,,,0.00,Wunderground v.1.15,2013-10-01 13:17:00,
2013-10-01 09:19:00,61.8,54.5,30.02,WNW,286,0.0,8.0,77,0.00,,,0.00,Wunderground v.1.15,2013-10-01 13:19:00,
2013-10-01 09:20:00,62.0,54.7,30.02,NW,304,1.0,2.0,77,0.00,,,0.00,Wunderground v.1.15,2013-10-01 13:20:00,
2013-10-01 09:22:00,62.1,54.8,30.02,WNW,300,1.0,3.0,77,0.00,,,0.00,Wunderground v.1.15,2013-10-01 13:22:00,
2013-10-01 09:24:00,62.3,55.0,30.02,NW,311,7.0,7.0,77,0.00,,,0.00,Wunderground v.1.15,2013-10-01 13:24:00,
2013-10-01 09:25:00,62.3,55.0,30.02,WNW,284,2.0,7.0,77,0.00,,,0.00,Wunderground v.1.15,2013-10-01 13:25:00,
2013-10-01 09:27:00,62.4,54.7,30.02,NW,315,1.0,9.0,76,0.00,,,0.00,Wunderground v.1.15,2013-10-01 13:27:00,
2013-10-01 09:29:00,62.7,55.0,30.02,NNW,333,0.0,9.0,76,0.00,,,0.00,Wunderground v.1.15,2013-10-01 13:29:00,
2013-10-01 09:30:00,62.7,55.0,30.02,NNW,333,1.0,3.0,76,0.00,,,0.00,Wunderground v.1.15,2013-10-01 13:30:00,
2013-10-01 09:32:00,63.1,55.4,30.02,NW,309,3.0,5.0,76,0.00,,,0.00,Wunderground v.1.15,2013-10-01 13:32:00,
2013-10-01 09:35:00,63.4,55.3,30.02,NW,323,3.0,5.0,75,0.00,,,0.00,Wunderground v.1.15,2013-10-01 13:35:00,
2013-10-01 09:37:00,63.5,55.1,30.02,NW,311,2.0,7.0,74,0.00,,,0.00,Wunderground v.1.15,2013-10-01 13:37:00,
2013-10-01 09:41:00,63.9,55.1,30.02,NW,309,4.0,7.0,73,0.00,,,0.00,Wunderground v.1.15,2013-10-01 13:41:00,
2013-10-01 09:42:00,64.0,55.2,30.02,WNW,301,0.0,8.0,73,0.00,,,0.00,Wunderground v.1.15,2013-10-01 13:42:00,
2013-10-01 09:46:00,64.2,55.4,30.02,NW,319,6.0,8.0,73,0.00,,,0.00,Wunderground v.1.15,2013-10-01 13:46:00,
2013-10-01 09:48:00,64.3,55.1,30.02,WNW,295,7.0,9.0,72,0.00,,,0.00,Wunderground v.1.15,2013-10-01 13:48:00,
2013-10-01 09:51:00,64.5,54.9,30.02,NW,326,0.0,5.0,71,0.00,,,0.00,Wunderground v.1.15,2013-10-01 13:51:00,
2013-10-01 09:53:00,64.7,55.5,30.02,NNW,327,3.0,5.0,72,0.00,,,0.00,Wunderground v.1.15,2013-10-01 13:53:00,
2013-10-01 09:56:00,65.0,55.4,30.02,NW,324,0.0,5.0,71,0.00,,,0.00,Wunderground v.1.15,2013-10-01 13:56:00,
2013-10-01 09:58:00,65.2,55.6,30.01,West,259,1.0,7.0,71,0.00,,,0.00,Wunderground v.1.15,2013-10-01 13:58:00,
2013-10-01 10:01:00,65.3,54.9,30.01,WNW,302,9.0,9.0,69,0.00,,,0.00,Wunderground v.1.15,2013-10-01 14:01:00,
2013-10-01 10:02:00,65.3,54.9,30.01,NW,308,4.0,9.0,69,0.00,,,0.00,Wunderground v.1.15,2013-10-01 14:02:00,
2013-10-01 10:04:00,65.5,55.5,30.01,West,275,2.0,9.0,70,0.00,,,0.00,Wunderground v.1.15,2013-10-01 14:04:00,
2013-10-01 10:07:00,65.8,55.7,30.01,NW,312,3.0,9.0,70,0.00,,,0.00,Wunderground v.1.15,2013-10-01 14:07:00,
2013-10-01 10:09:00,66.0,55.5,30.01,NW,312,1.0,9.0,69,0.00,,,0.00,Wunderground v.1.15,2013-10-01 14:09:00,
2013-10-01 10:12:00,66.3,55.8,30.01,WSW,253,2.0,4.0,69,0.00,,,0.00,Wunderground v.1.15,2013-10-01 14:12:00,
2013-10-01 10:14:00,66.4,55.5,30.01,NNW,334,4.0,5.0,68,0.00,,,0.00,Wunderground v.1.15,2013-10-01 14:14:00,
2013-10-01 10:17:00,66.6,55.3,30.01,WNW,293,2.0,6.0,67,0.00,,,0.00,Wunderground v.1.15,2013-10-01 14:17:00,
2013-10-01 10:19:00,66.8,55.1,30.01,NW,315,1.0,6.0,66,0.00,,,0.00,Wunderground v.1.15,2013-10-01 14:19:00,
2013-10-01 10:22:00,67.1,55.8,30.01,WSW,240,0.0,3.0,67,0.00,,,0.00,Wunderground v.1.15,2013-10-01 14:22:00,
2013-10-01 10:23:00,67.3,56.0,30.01,WSW,240,1.0,3.0,67,0.00,,,0.00,Wunderground v.1.15,2013-10-01 14:23:00,
2013-10-01 10:24:00,67.3,56.0,30.01,WSW,240,2.0,3.0,67,0.00,,,0.00,Wunderground v.1.15,2013-10-01 14:24:00,
2013-10-01 10:28:00,67.6,55.8,30.01,WSW,240,0.0,4.0,66,0.00,,,0.00,Wunderground v.1.15,2013-10-01 14:28:00,
2013-10-01 10:29:00,67.8,56.0,30.01,WSW,240,0.0,4.0,66,0.00,,,0.00,Wunderground v.1.15,2013-10-01 14:29:00,
2013-10-01 10:33:00,67.9,56.1,30.01,WSW,240,2.0,4.0,66,0.00,,,0.00,Wunderground v.1.15,2013-10-01 14:33:00,
2013-10-01 10:35:00,67.9,55.7,30.01,NW,312,4.0,5.0,65,0.00,,,0.00,Wunderground v.1.15,2013-10-01 14:35:00,
2013-10-01 10:38:00,68.3,56.1,30.01,NW,312,0.0,7.0,65,0.00,,,0.00,Wunderground v.1.15,2013-10-01 14:38:00,
2013-10-01 10:40:00,68.4,56.2,30.01,NW,304,5.0,5.0,65,0.00,,,0.00,Wunderground v.1.15,2013-10-01 14:40:00,
2013-10-01 10:43:00,68.8,56.1,30.01,WSW,242,2.0,7.0,64,0.00,,,0.00,Wunderground v.1.15,2013-10-01 14:43:00,
2013-10-01 10:45:00,68.8,56.1,30.01,WSW,240,0.0,7.0,64,0.00,,,0.00,Wunderground v.1.15,2013-10-01 14:45:00,
2013-10-01 10:48:00,68.9,56.2,30.01,West,265,4.0,7.0,64,0.00,,,0.00,Wunderground v.1.15,2013-10-01 14:48:00,
2013-10-01 10:50:00,69.1,56.4,30.01,NW,323,6.0,6.0,64,0.00,,,0.00,Wunderground v.1.15,2013-10-01 14:50:00,
2013-10-01 10:53:00,69.3,56.6,30.01,WNW,300,8.0,9.0,64,0.00,,,0.00,Wunderground v.1.15,2013-10-01 14:53:00,
2013-10-01 10:55:00,69.4,56.3,30.01,NNW,344,3.0,9.0,63,0.00,,,0.00,Wunderground v.1.15,2013-10-01 14:55:00,
2013-10-01 10:58:00,69.6,56.4,30.01,WNW,286,4.0,10.0,63,0.00,,,0.00,Wunderground v.1.15,2013-10-01 14:58:00,
2013-10-01 11:00:00,69.9,57.2,30.01,SW,221,4.0,5.0,64,0.00,,,0.00,Wunderground v.1.15,2013-10-01 15:00:00,
2013-10-01 11:03:00,70.1,56.5,30.01,SW,234,3.0,5.0,62,0.00,,,0.00,Wunderground v.1.15,2013-10-01 15:03:00,
2013-10-01 11:06:00,70.3,56.7,30.01,WNW,286,5.0,5.0,62,0.00,,,0.00,Wunderground v.1.15,2013-10-01 15:06:00,
2013-10-01 11:08:00,70.4,56.3,30.01,SW,233,4.0,5.0,61,0.00,,,0.00,Wunderground v.1.15,2013-10-01 15:08:00,
2013-10-01 11:11:00,70.6,56.5,30.01,NW,311,1.0,6.0,61,0.00,,,0.00,Wunderground v.1.15,2013-10-01 15:11:00,
2013-10-01 11:13:00,70.6,56.5,30.01,WSW,245,0.0,6.0,61,0.00,,,0.00,Wunderground v.1.15,2013-10-01 15:13:00,
2013-10-01 11:16:00,70.9,56.3,30.01,NNW,328,2.0,6.0,60,0.00,,,0.00,Wunderground v.1.15,2013-10-01 15:16:00,
2013-10-01 11:18:00,71.3,56.7,30.00,NNW,328,0.0,6.0,60,0.00,,,0.00,Wunderground v.1.15,2013-10-01 15:18:00,
2013-10-01 11:21:00,71.8,57.2,30.00,NW,305,3.0,4.0,60,0.00,,,0.00,Wunderground v.1.15,2013-10-01 15:21:00,
2013-10-01 11:23:00,72.0,56.4,30.00,NW,320,3.0,6.0,58,0.00,,,0.00,Wunderground v.1.15,2013-10-01 15:23:00,
2013-10-01 11:24:00,72.0,56.4,30.00,NW,319,2.0,6.0,58,0.00,,,0.00,Wunderground v.1.15,2013-10-01 15:24:00,
2013-10-01 11:27:00,72.1,56.0,30.00,NW,319,2.0,6.0,57,0.00,,,0.00,Wunderground v.1.15,2013-10-01 15:27:00,
2013-10-01 11:28:00,72.3,56.2,30.00,West,266,1.0,6.0,57,0.00,,,0.00,Wunderground v.1.15,2013-10-01 15:28:00,
2013-10-01 11:29:00,72.3,56.2,30.00,West,266,0.0,6.0,57,0.00,,,0.00,Wunderground v.1.15,2013-10-01 15:29:00,
2013-10-01 11:32:00,72.7,56.6,30.00,West,266,0.0,2.0,57,0.00,,,0.00,Wunderground v.1.15,2013-10-01 15:32:00,
2013-10-01 11:33:00,72.7,56.1,30.00,WSW,244,0.0,4.0,56,0.00,,,0.00,Wunderground v.1.15,2013-10-01 15:33:00,
2013-10-01 11:34:00,72.7,56.6,30.00,WSW,244,0.0,4.0,57,0.00,,,0.00,Wunderground v.1.15,2013-10-01 15:34:00,
2013-10-01 11:37:00,72.8,56.2,30.00,WSW,242,0.0,4.0,56,0.00,,,0.00,Wunderground v.1.15,2013-10-01 15:37:00,
2013-10-01 11:39:00,72.8,56.2,30.00,NW,325,2.0,5.0,56,0.00,,,0.00,Wunderground v.1.15,2013-10-01 15:39:00,
2013-10-01 11:40:00,73.0,56.4,30.00,NW,325,1.0,2.0,56,0.00,,,0.00,Wunderground v.1.15,2013-10-01 15:40:00,
2013-10-01 11:42:00,73.0,56.4,30.00,NW,321,1.0,2.0,56,0.00,,,0.00,Wunderground v.1.15,2013-10-01 15:42:00,
2013-10-01 11:44:00,73.3,56.7,30.00,WNW,293,1.0,4.0,56,0.00,,,0.00,Wunderground v.1.15,2013-10-01 15:44:00,
2013-10-01 11:45:00,73.3,56.2,30.00,WNW,294,3.0,4.0,55,0.00,,,0.00,Wunderground v.1.15,2013-10-01 15:45:00,
2013-10-01 11:48:00,73.5,56.3,30.00,WNW,300,1.0,4.0,55,0.00,,,0.00,Wunderground v.1.15,2013-10-01 15:48:00,
2013-10-01 11:49:00,73.5,55.8,30.00,WNW,300,2.0,4.0,54,0.00,,,0.00,Wunderground v.1.15,2013-10-01 15:49:00,
2013-10-01 11:51:00,73.5,55.8,29.99,WNW,300,1.0,2.0,54,0.00,,,0.00,Wunderground v.1.15,2013-10-01 15:51:00,
2013-10-01 11:53:00,73.7,56.5,29.99,NW,311,2.0,4.0,55,0.00,,,0.00,Wunderground v.1.15,2013-10-01 15:53:00,
2013-10-01 11:54:00,73.7,56.5,29.99,WNW,298,3.0,4.0,55,0.00,,,0.00,Wunderground v.1.15,2013-10-01 15:54:00,
2013-10-01 11:56:00,73.7,56.0,29.99,WNW,298,0.0,4.0,54,0.00,,,0.00,Wunderground v.1.15,2013-10-01 15:56:00,
2013-10-01 11:58:00,73.9,56.2,29.99,WNW,298,0.0,4.0,54,0.00,,,0.00,Wunderground v.1.15,2013-10-01 15:58:00,
2013-10-01 11:59:00,74.0,56.3,29.99,WNW,298,2.0,4.0,54,0.00,,,0.00,Wunderground v.1.15,2013-10-01 15:59:00,
2013-10-01 12:01:00,74.2,56.5,29.99,West,269,1.0,2.0,54,0.00,,,0.00,Wunderground v.1.15,2013-10-01 16:01:00,
2013-10-01 12:03:00,74.4,56.2,29.99,West,269,0.0,2.0,53,0.00,,,0.00,Wunderground v.1.15,2013-10-01 16:03:00,
2013-10-01 12:05:00,74.7,55.9,29.99,WSW,256,3.0,3.0,52,0.00,,,0.00,Wunderground v.1.15,2013-10-01 16:05:00,
2013-10-01 12:06:00,74.7,55.9,29.99,WNW,302,2.0,4.0,52,0.00,,,0.00,Wunderground v.1.15,2013-10-01 16:06:00,
2013-10-01 12:08:00,74.9,56.1,29.99,WNW,302,1.0,4.0,52,0.00,,,0.00,Wunderground v.1.15,2013-10-01 16:08:00,
2013-10-01 12:10:00,74.9,54.4,29.99,WNW,302,0.0,1.0,49,0.00,,,0.00,Wunderground v.1.15,2013-10-01 16:10:00,
2013-10-01 12:12:00,74.9,55.0,29.99,WSW,238,0.0,4.0,50,0.00,,,0.00,Wunderground v.1.15,2013-10-01 16:12:00,
2013-10-01 12:13:00,75.1,55.2,29.99,WSW,238,0.0,4.0,50,0.00,,,0.00,Wunderground v.1.15,2013-10-01 16:13:00,
2013-10-01 12:16:00,75.3,55.9,29.99,WSW,238,2.0,4.0,51,0.00,,,0.00,Wunderground v.1.15,2013-10-01 16:16:00,
2013-10-01 12:17:00,75.3,55.4,29.99,WSW,238,0.0,4.0,50,0.00,,,0.00,Wunderground v.1.15,2013-10-01 16:17:00,
2013-10-01 12:18:00,75.3,55.4,29.99,WSW,241,1.0,4.0,50,0.00,,,0.00,Wunderground v.1.15,2013-10-01 16:18:00,
2013-10-01 12:21:00,75.4,54.9,29.99,WSW,241,2.0,2.0,49,0.00,,,0.00,Wunderground v.1.15,2013-10-01 16:21:00,
2013-10-01 12:23:00,75.6,55.1,29.99,NW,305,1.0,7.0,49,0.00,,,0.00,Wunderground v.1.15,2013-10-01 16:23:00,
2013-10-01 12:26:00,75.8,55.8,29.99,NW,309,5.0,7.0,50,0.00,,,0.00,Wunderground v.1.15,2013-10-01 16:26:00,
2013-10-01 12:28:00,75.8,55.8,29.99,NW,325,3.0,7.0,50,0.00,,,0.00,Wunderground v.1.15,2013-10-01 16:28:00,
2013-10-01 12:31:00,76.1,55.5,29.99,West,261,0.0,3.0,49,0.00,,,0.00,Wunderground v.1.15,2013-10-01 16:31:00,
2013-10-01 12:33:00,76.3,55.7,29.99,WSW,253,0.0,4.0,49,0.00,,,0.00,Wunderground v.1.15,2013-10-01 16:33:00,
2013-10-01 12:34:00,76.5,56.5,29.99,WSW,253,1.0,4.0,50,0.00,,,0.00,Wunderground v.1.15,2013-10-01 16:34:00,
2013-10-01 12:36:00,76.7,55.5,29.99,WNW,302,0.0,7.0,48,0.00,,,0.00,Wunderground v.1.15,2013-10-01 16:36:00,
2013-10-01 12:38:00,76.7,55.5,29.99,WNW,298,1.0,7.0,48,0.00,,,0.00,Wunderground v.1.15,2013-10-01 16:38:00,
2013-10-01 12:39:00,76.8,55.6,29.98,NW,315,5.0,7.0,48,0.00,,,0.00,Wunderground v.1.15,2013-10-01 16:39:00,
2013-10-01 12:41:00,76.8,55.0,29.98,NNW,342,1.0,5.0,47,0.00,,,0.00,Wunderground v.1.15,2013-10-01 16:41:00,
2013-10-01 12:43:00,76.8,55.0,29.98,WSW,243,3.0,5.0,47,0.00,,,0.00,Wunderground v.1.15,2013-10-01 16:43:00,
2013-10-01 12:44:00,76.7,55.0,29.98,WSW,243,2.0,5.0,47,0.00,,,0.00,Wunderground v.1.15,2013-10-01 16:44:00,
2013-10-01 12:46:00,76.8,55.6,29.98,WSW,240,1.0,5.0,48,0.00,,,0.00,Wunderground v.1.15,2013-10-01 16:46:00,
2013-10-01 12:48:00,76.8,55.6,29.98,NW,309,4.0,5.0,48,0.00,,,0.00,Wunderground v.1.15,2013-10-01 16:48:00,
2013-10-01 12:49:00,76.8,55.0,29.98,SW,219,3.0,5.0,47,0.00,,,0.00,Wunderground v.1.15,2013-10-01 16:49:00,
2013-10-01 12:52:00,76.8,55.0,29.98,NW,308,0.0,5.0,47,0.00,,,0.00,Wunderground v.1.15,2013-10-01 16:52:00,
2013-10-01 12:53:00,76.8,55.6,29.98,SW,217,3.0,5.0,48,0.00,,,0.00,Wunderground v.1.15,2013-10-01 16:53:00,
2013-10-01 12:54:00,76.8,55.6,29.98,NW,315,5.0,6.0,48,0.00,,,0.00,Wunderground v.1.15,2013-10-01 16:54:00,
2013-10-01 12:57:00,76.7,55.0,29.98,NW,312,0.0,6.0,47,0.00,,,0.00,Wunderground v.1.15,2013-10-01 16:57:00,
2013-10-01 12:59:00,76.8,55.6,29.98,NW,312,1.0,6.0,48,0.00,,,0.00,Wunderground v.1.15,2013-10-01 16:59:00,
2013-10-01 13:02:00,77.0,55.2,29.97,North,351,4.0,4.0,47,0.00,,,0.00,Wunderground v.1.15,2013-10-01 17:02:00,
2013-10-01 13:04:00,77.2,54.8,29.97,NE,35,6.0,7.0,46,0.00,,,0.00,Wunderground v.1.15,2013-10-01 17:04:00,
2013-10-01 13:07:00,77.2,54.8,29.97,NW,309,2.0,7.0,46,0.00,,,0.00,Wunderground v.1.15,2013-10-01 17:07:00,
2013-10-01 13:09:00,77.2,55.4,29.97,SW,234,0.0,7.0,47,0.00,,,0.00,Wunderground v.1.15,2013-10-01 17:09:00,
2013-10-01 13:10:00,77.2,55.4,29.97,NW,316,5.0,5.0,47,0.00,,,0.00,Wunderground v.1.15,2013-10-01 17:10:00,
2013-10-01 13:12:00,77.4,56.2,29.97,NW,325,0.0,6.0,48,0.00,,,0.00,Wunderground v.1.15,2013-10-01 17:12:00,
2013-10-01 13:15:00,77.4,55.0,29.97,WNW,294,3.0,6.0,46,0.00,,,0.00,Wunderground v.1.15,2013-10-01 17:15:00,
2013-10-01 13:18:00,77.4,55.6,29.97,NW,311,1.0,6.0,47,0.00,,,0.00,Wunderground v.1.15,2013-10-01 17:18:00,
2013-10-01 13:20:00,77.7,55.9,29.97,NW,311,1.0,2.0,47,0.00,,,0.00,Wunderground v.1.15,2013-10-01 17:20:00,
2013-10-01 13:23:00,77.7,54.7,29.97,NW,306,2.0,4.0,45,0.00,,,0.00,Wunderground v.1.15,2013-10-01 17:23:00,
2013-10-01 13:25:00,77.7,55.3,29.97,WNW,301,3.0,5.0,46,0.00,,,0.00,Wunderground v.1.15,2013-10-01 17:25:00,
2013-10-01 13:29:00,77.7,54.7,29.96,WNW,294,1.0,5.0,45,0.00,,,0.00,Wunderground v.1.15,2013-10-01 17:29:00,
2013-10-01 13:30:00,77.9,54.8,29.96,WNW,294,1.0,2.0,45,0.00,,,0.00,Wunderground v.1.15,2013-10-01 17:30:00,
2013-10-01 13:35:00,78.1,55.0,29.96,NW,305,1.0,4.0,45,0.00,,,0.00,Wunderground v.1.15,2013-10-01 17:35:00,
2013-10-01 13:40:00,78.1,52.5,29.96,WNW,300,2.0,3.0,41,0.00,,,0.00,Wunderground v.1.15,2013-10-01 17:40:00,
2013-10-01 13:41:00,78.3,52.7,29.96,WNW,300,2.0,3.0,41,0.00,,,0.00,Wunderground v.1.15,2013-10-01 17:41:00,
2013-10-01 13:45:00,78.8,53.1,29.96,WNW,300,0.0,3.0,41,0.00,,,0.00,Wunderground v.1.15,2013-10-01 17:45:00,
2013-10-01 13:46:00,79.0,53.3,29.96,WNW,300,0.0,3.0,41,0.00,,,0.00,Wunderground v.1.15,2013-10-01 17:46:00,
2013-10-01 13:50:00,79.6,54.5,29.95,WSW,244,0.0,2.0,42,0.00,,,0.00,Wunderground v.1.15,2013-10-01 17:50:00,
2013-10-01 13:51:00,79.6,54.5,29.95,WSW,244,0.0,2.0,42,0.00,,,0.00,Wunderground v.1.15,2013-10-01 17:51:00,
2013-10-01 13:55:00,79.2,56.0,29.95,SE,126,0.0,4.0,45,0.00,,,0.00,Wunderground v.1.15,2013-10-01 17:55:00,
2013-10-01 13:56:00,79.2,56.0,29.95,SE,126,0.0,4.0,45,0.00,,,0.00,Wunderground v.1.15,2013-10-01 17:56:00,
2013-10-01 14:01:00,78.8,56.3,29.95,SSE,155,1.0,2.0,46,0.00,,,0.00,Wunderground v.1.15,2013-10-01 18:01:00,
2013-10-01 14:06:00,78.6,57.3,29.95,SSE,159,0.0,4.0,48,0.00,,,0.00,Wunderground v.1.15,2013-10-01 18:06:00,
2013-10-01 14:11:00,78.3,57.0,29.95,SSE,150,1.0,2.0,48,0.00,,,0.00,Wunderground v.1.15,2013-10-01 18:11:00,
2013-10-01 14:12:00,78.3,57.6,29.95,SSE,150,0.0,2.0,49,0.00,,,0.00,Wunderground v.1.15,2013-10-01 18:12:00,
2013-10-01 14:16:00,77.7,57.0,29.95,ENE,74,0.0,4.0,49,0.00,,,0.00,Wunderground v.1.15,2013-10-01 18:16:00,
2013-10-01 14:17:00,77.7,56.4,29.95,ENE,74,0.0,4.0,48,0.00,,,0.00,Wunderground v.1.15,2013-10-01 18:17:00,
2013-10-01 14:21:00,77.2,56.6,29.95,ENE,77,0.0,3.0,49,0.00,,,0.00,Wunderground v.1.15,2013-10-01 18:21:00,
2013-10-01 14:22:00,77.2,57.1,29.95,ENE,77,0.0,3.0,50,0.00,,,0.00,Wunderground v.1.15,2013-10-01 18:22:00,
2013-10-01 14:27:00,77.4,57.3,29.94,ENE,75,1.0,3.0,50,0.00,,,0.00,Wunderground v.1.15,2013-10-01 18:27:00,
2013-10-01 14:32:00,78.1,56.8,29.94,SE,131,1.0,2.0,48,0.00,,,0.00,Wunderground v.1.15,2013-10-01 18:32:00,
2013-10-01 14:37:00,78.1,57.4,29.94,SSE,153,2.0,3.0,49,0.00,,,0.00,Wunderground v.1.15,2013-10-01 18:37:00,
2013-10-01 14:42:00,77.9,57.2,29.94,SSE,150,3.0,4.0,49,0.00,,,0.00,Wunderground v.1.15,2013-10-01 18:42:00,
2013-10-01 14:47:00,77.7,57.6,29.94,SSE,150,0.0,4.0,50,0.00,,,0.00,Wunderground v.1.15,2013-10-01 18:47:00,
2013-10-01 14:48:00,77.7,57.6,29.94,SSE,150,0.0,4.0,50,0.00,,,0.00,Wunderground v.1.15,2013-10-01 18:48:00,
2013-10-01 14:52:00,77.9,57.2,29.94,SSE,150,0.0,3.0,49,0.00,,,0.00,Wunderground v.1.15,2013-10-01 18:52:00,
2013-10-01 14:53:00,77.9,57.2,29.94,SSE,150,0.0,3.0,49,0.00,,,0.00,Wunderground v.1.15,2013-10-01 18:53:00,
2013-10-01 14:57:00,77.9,57.2,29.94,ESE,111,0.0,4.0,49,0.00,,,0.00,Wunderground v.1.15,2013-10-01 18:57:00,
2013-10-01 14:58:00,77.9,57.2,29.94,ESE,111,0.0,4.0,49,0.00,,,0.00,Wunderground v.1.15,2013-10-01 18:58:00,
2013-10-01 15:02:00,78.1,56.8,29.93,NNW,327,3.0,8.0,48,0.00,,,0.00,Wunderground v.1.15,2013-10-01 19:02:00,
2013-10-01 15:03:00,78.1,56.8,29.93,WNW,294,5.0,8.0,48,0.00,,,0.00,Wunderground v.1.15,2013-10-01 19:03:00,
2013-10-01 15:04:00,78.3,57.6,29.93,North,5,3.0,8.0,49,0.00,,,0.00,Wunderground v.1.15,2013-10-01 19:04:00,
2013-10-01 15:08:00,78.3,58.1,29.93,West,267,2.0,9.0,50,0.00,,,0.00,Wunderground v.1.15,2013-10-01 19:08:00,
2013-10-01 15:09:00,78.5,57.7,29.93,WSW,244,0.0,9.0,49,0.00,,,0.00,Wunderground v.1.15,2013-10-01 19:09:00,
2013-10-01 15:13:00,78.8,56.9,29.93,West,281,1.0,6.0,47,0.00,,,0.00,Wunderground v.1.15,2013-10-01 19:13:00,
2013-10-01 15:14:00,78.8,56.9,29.93,West,281,1.0,6.0,47,0.00,,,0.00,Wunderground v.1.15,2013-10-01 19:14:00,
2013-10-01 15:18:00,79.4,58.0,29.93,NNE,12,0.0,6.0,48,0.00,,,0.00,Wunderground v.1.15,2013-10-01 19:18:00,
2013-10-01 15:19:00,79.6,57.0,29.93,WSW,257,0.0,6.0,46,0.00,,,0.00,Wunderground v.1.15,2013-10-01 19:19:00,
2013-10-01 15:23:00,79.6,56.4,29.93,West,261,0.0,2.0,45,0.00,,,0.00,Wunderground v.1.15,2013-10-01 19:23:00,
2013-10-01 15:24:00,79.6,56.4,29.93,North,5,3.0,3.0,45,0.00,,,0.00,Wunderground v.1.15,2013-10-01 19:24:00,
2013-10-01 15:28:00,79.6,57.0,29.92,East,82,1.0,7.0,46,0.00,,,0.00,Wunderground v.1.15,2013-10-01 19:28:00,
2013-10-01 15:29:00,79.8,57.2,29.92,NW,316,0.0,7.0,46,0.00,,,0.00,Wunderground v.1.15,2013-10-01 19:29:00,
2013-10-01 15:33:00,79.9,57.3,29.92,West,281,0.0,5.0,46,0.00,,,0.00,Wunderground v.1.15,2013-10-01 19:33:00,
2013-10-01 15:34:00,79.9,57.3,29.92,West,281,0.0,5.0,46,0.00,,,0.00,Wunderground v.1.15,2013-10-01 19:34:00,
2013-10-01 15:35:00,80.1,57.5,29.92,SW,230,5.0,5.0,46,0.00,,,0.00,Wunderground v.1.15,2013-10-01 19:35:00,
2013-10-01 15:38:00,80.5,57.8,29.92,West,263,0.0,6.0,46,0.00,,,0.00,Wunderground v.1.15,2013-10-01 19:38:00,
2013-10-01 15:39:00,80.5,57.8,29.92,West,263,1.0,6.0,46,0.00,,,0.00,Wunderground v.1.15,2013-10-01 19:39:00,
2013-10-01 15:40:00,80.5,57.2,29.92,West,262,0.0,2.0,45,0.00,,,0.00,Wunderground v.1.15,2013-10-01 19:40:00,
2013-10-01 15:43:00,80.3,57.6,29.92,WNW,303,0.0,4.0,46,0.00,,,0.00,Wunderground v.1.15,2013-10-01 19:43:00,
2013-10-01 15:44:00,80.3,58.2,29.92,WNW,303,0.0,4.0,47,0.00,,,0.00,Wunderground v.1.15,2013-10-01 19:44:00,
2013-10-01 15:46:00,80.3,57.6,29.92,WNW,297,5.0,10.0,46,0.00,,,0.00,Wunderground v.1.15,2013-10-01 19:46:00,
2013-10-01 15:49:00,79.9,56.7,29.92,NW,304,1.0,10.0,45,0.00,,,0.00,Wunderground v.1.15,2013-10-01 19:49:00,
2013-10-01 15:51:00,79.8,57.2,29.92,NW,322,1.0,2.0,46,0.00,,,0.00,Wunderground v.1.15,2013-10-01 19:51:00,
2013-10-01 15:54:00,79.6,57.0,29.92,NW,309,2.0,6.0,46,0.00,,,0.00,Wunderground v.1.15,2013-10-01 19:54:00,
2013-10-01 15:56:00,79.8,57.2,29.92,WNW,299,0.0,6.0,46,0.00,,,0.00,Wunderground v.1.15,2013-10-01 19:56:00,
2013-10-01 15:59:00,79.8,57.2,29.92,West,273,0.0,6.0,46,0.00,,,0.00,Wunderground v.1.15,2013-10-01 19:59:00,
2013-10-01 16:01:00,79.8,57.8,29.92,WSW,246,3.0,5.0,47,0.00,,,0.00,Wunderground v.1.15,2013-10-01 20:01:00,
2013-10-01 16:04:00,79.8,56.6,29.92,WSW,245,3.0,5.0,45,0.00,,,0.00,Wunderground v.1.15,2013-10-01 20:04:00,
2013-10-01 16:06:00,79.8,57.8,29.92,WSW,245,0.0,5.0,47,0.00,,,0.00,Wunderground v.1.15,2013-10-01 20:06:00,
2013-10-01 16:09:00,79.8,56.6,29.92,SW,226,0.0,6.0,45,0.00,,,0.00,Wunderground v.1.15,2013-10-01 20:09:00,
2013-10-01 16:10:00,79.8,56.6,29.92,SW,226,0.0,1.0,45,0.00,,,0.00,Wunderground v.1.15,2013-10-01 20:10:00,
2013-10-01 16:11:00,79.9,57.3,29.92,SW,232,0.0,2.0,46,0.00,,,0.00,Wunderground v.1.15,2013-10-01 20:11:00,
2013-10-01 16:14:00,80.1,57.5,29.92,WNW,282,0.0,6.0,46,0.00,,,0.00,Wunderground v.1.15,2013-10-01 20:14:00,
2013-10-01 16:15:00,80.1,57.5,29.92,WNW,283,1.0,6.0,46,0.00,,,0.00,Wunderground v.1.15,2013-10-01 20:15:00,
2013-10-01 16:16:00,80.1,57.5,29.92,WNW,286,6.0,7.0,46,0.00,,,0.00,Wunderground v.1.15,2013-10-01 20:16:00,
2013-10-01 16:20:00,79.9,57.3,29.92,West,281,4.0,4.0,46,0.00,,,0.00,Wunderground v.1.15,2013-10-01 20:20:00,
2013-10-01 16:22:00,79.8,57.2,29.92,NNW,338,1.0,5.0,46,0.00,,,0.00,Wunderground v.1.15,2013-10-01 20:22:00,
2013-10-01 16:25:00,79.8,57.2,29.92,WNW,282,1.0,6.0,46,0.00,,,0.00,Wunderground v.1.15,2013-10-01 20:25:00,
2013-10-01 16:27:00,79.9,57.3,29.92,West,279,0.0,8.0,46,0.00,,,0.00,Wunderground v.1.15,2013-10-01 20:27:00,
2013-10-01 16:30:00,80.1,57.5,29.92,SW,234,0.0,2.0,46,0.00,,,0.00,Wunderground v.1.15,2013-10-01 20:30:00,
2013-10-01 16:32:00,80.3,58.2,29.92,SW,231,3.0,4.0,47,0.00,,,0.00,Wunderground v.1.15,2013-10-01 20:32:00,
2013-10-01 16:35:00,80.3,58.2,29.92,NW,313,4.0,5.0,47,0.00,,,0.00,Wunderground v.1.15,2013-10-01 20:35:00,
2013-10-01 16:37:00,80.3,57.0,29.92,WNW,297,1.0,6.0,45,0.00,,,0.00,Wunderground v.1.15,2013-10-01 20:37:00,
2013-10-01 16:40:00,80.3,57.6,29.92,SW,228,2.0,4.0,46,0.00,,,0.00,Wunderground v.1.15,2013-10-01 20:40:00,
2013-10-01 16:42:00,80.1,57.5,29.92,NW,305,0.0,5.0,46,0.00,,,0.00,Wunderground v.1.15,2013-10-01 20:42:00,
2013-10-01 16:45:00,80.1,57.5,29.92,South,174,3.0,5.0,46,0.00,,,0.00,Wunderground v.1.15,2013-10-01 20:45:00,
2013-10-01 16:48:00,79.9,57.3,29.92,WSW,253,0.0,6.0,46,0.00,,,0.00,Wunderground v.1.15,2013-10-01 20:48:00,
2013-10-01 16:50:00,79.8,57.8,29.92,WSW,240,1.0,4.0,47,0.00,,,0.00,Wunderground v.1.15,2013-10-01 20:50:00,
2013-10-01 16:53:00,79.8,57.2,29.92,NW,313,3.0,5.0,46,0.00,,,0.00,Wunderground v.1.15,2013-10-01 20:53:00,
2013-10-01 16:55:00,79.8,57.8,29.92,West,259,0.0,5.0,47,0.00,,,0.00,Wunderground v.1.15,2013-10-01 20:55:00,
2013-10-01 16:56:00,79.8,57.8,29.92,West,259,0.0,5.0,47,0.00,,,0.00,Wunderground v.1.15,2013-10-01 20:56:00,
2013-10-01 16:58:00,79.8,57.2,29.92,SW,225,3.0,5.0,46,0.00,,,0.00,Wunderground v.1.15,2013-10-01 20:58:00,
2013-10-01 17:01:00,79.8,57.2,29.92,SW,220,3.0,5.0,46,0.00,,,0.00,Wunderground v.1.15,2013-10-01 21:01:00,
2013-10-01 17:04:00,79.6,57.0,29.92,SW,222,3.0,7.0,46,0.00,,,0.00,Wunderground v.1.15,2013-10-01 21:04:00,
2013-10-01 17:06:00,79.4,57.4,29.92,WNW,287,0.0,7.0,47,0.00,,,0.00,Wunderground v.1.15,2013-10-01 21:06:00,
2013-10-01 17:09:00,79.4,56.8,29.92,WNW,290,0.0,7.0,46,0.00,,,0.00,Wunderground v.1.15,2013-10-01 21:09:00,
2013-10-01 17:11:00,79.2,56.6,29.92,WNW,292,2.0,3.0,46,0.00,,,0.00,Wunderground v.1.15,2013-10-01 21:11:00,
2013-10-01 17:14:00,79.2,56.6,29.92,WNW,292,1.0,3.0,46,0.00,,,0.00,Wunderground v.1.15,2013-10-01 21:14:00,
2013-10-01 17:16:00,79.2,57.8,29.92,WNW,292,0.0,3.0,48,0.00,,,0.00,Wunderground v.1.15,2013-10-01 21:16:00,
2013-10-01 17:19:00,79.0,57.6,29.92,West,275,0.0,3.0,48,0.00,,,0.00,Wunderground v.1.15,2013-10-01 21:19:00,
2013-10-01 17:21:00,78.8,57.4,29.92,West,271,1.0,1.0,48,0.00,,,0.00,Wunderground v.1.15,2013-10-01 21:21:00,
2013-10-01 17:22:00,78.8,57.4,29.92,West,271,0.0,1.0,48,0.00,,,0.00,Wunderground v.1.15,2013-10-01 21:22:00,
2013-10-01 17:25:00,78.6,57.8,29.92,NW,312,6.0,6.0,49,0.00,,,0.00,Wunderground v.1.15,2013-10-01 21:25:00,
2013-10-01 17:26:00,78.5,57.7,29.92,WNW,286,0.0,7.0,49,0.00,,,0.00,Wunderground v.1.15,2013-10-01 21:26:00,
2013-10-01 17:27:00,78.5,57.7,29.92,WNW,286,1.0,7.0,49,0.00,,,0.00,Wunderground v.1.15,2013-10-01 21:27:00,
2013-10-01 17:30:00,78.3,57.6,29.92,WSW,244,2.0,2.0,49,0.00,,,0.00,Wunderground v.1.15,2013-10-01 21:30:00,
2013-10-01 17:31:00,78.3,57.6,29.92,NNW,336,0.0,9.0,49,0.00,,,0.00,Wunderground v.1.15,2013-10-01 21:31:00,
2013-10-01 17:32:00,78.1,57.4,29.92,NNW,336,0.0,9.0,49,0.00,,,0.00,Wunderground v.1.15,2013-10-01 21:32:00,
2013-10-01 17:35:00,78.1,57.4,29.92,NNW,335,3.0,9.0,49,0.00,,,0.00,Wunderground v.1.15,2013-10-01 21:35:00,
2013-10-01 17:37:00,77.9,57.8,29.92,NNW,335,0.0,9.0,50,0.00,,,0.00,Wunderground v.1.15,2013-10-01 21:37:00,
2013-10-01 17:40:00,77.7,57.6,29.92,NNW,335,1.0,1.0,50,0.00,,,0.00,Wunderground v.1.15,2013-10-01 21:40:00,
2013-10-01 17:42:00,77.7,58.1,29.92,NNW,335,0.0,1.0,51,0.00,,,0.00,Wunderground v.1.15,2013-10-01 21:42:00,
2013-10-01 17:45:00,77.6,58.0,29.92,NNW,335,0.0,1.0,51,0.00,,,0.00,Wunderground v.1.15,2013-10-01 21:45:00,
2013-10-01 17:47:00,77.4,57.9,29.92,NNW,332,0.0,5.0,51,0.00,,,0.00,Wunderground v.1.15,2013-10-01 21:47:00,
2013-10-01 17:50:00,77.2,57.7,29.92,NW,320,3.0,3.0,51,0.00,,,0.00,Wunderground v.1.15,2013-10-01 21:50:00,
2013-10-01 17:53:00,77.2,58.2,29.92,NW,320,0.0,3.0,52,0.00,,,0.00,Wunderground v.1.15,2013-10-01 21:53:00,
2013-10-01 17:55:00,77.0,58.6,29.92,NW,320,0.0,3.0,53,0.00,,,0.00,Wunderground v.1.15,2013-10-01 21:55:00,
2013-10-01 17:58:00,76.8,58.9,29.92,NW,320,0.0,3.0,54,0.00,,,0.00,Wunderground v.1.15,2013-10-01 21:58:00,
2013-10-01 18:01:00,76.7,58.8,29.92,NW,320,0.0,0.0,54,0.00,,,0.00,Wunderground v.1.15,2013-10-01 22:01:00,
2013-10-01 18:03:00,76.7,58.8,29.92,NW,320,0.0,0.0,54,0.00,,,0.00,Wunderground v.1.15,2013-10-01 22:03:00,
2013-10-01 18:06:00,76.5,58.6,29.92,NW,320,0.0,0.0,54,0.00,,,0.00,Wunderground v.1.15,2013-10-01 22:06:00,
2013-10-01 18:08:00,76.3,58.9,29.92,NW,320,0.0,0.0,55,0.00,,,0.00,Wunderground v.1.15,2013-10-01 22:08:00,
2013-10-01 18:11:00,76.0,58.7,29.92,NW,320,0.0,0.0,55,0.00,,,0.00,Wunderground v.1.15,2013-10-01 22:11:00,
2013-10-01 18:13:00,75.8,59.0,29.92,NW,320,0.0,0.0,56,0.00,,,0.00,Wunderground v.1.15,2013-10-01 22:13:00,
2013-10-01 18:16:00,75.6,58.8,29.92,NW,320,0.0,0.0,56,0.00,,,0.00,Wunderground v.1.15,2013-10-01 22:16:00,
2013-10-01 18:18:00,75.4,59.1,29.92,NW,320,0.0,0.0,57,0.00,,,0.00,Wunderground v.1.15,2013-10-01 22:18:00,
2013-10-01 18:21:00,75.1,58.8,29.92,NW,320,0.0,0.0,57,0.00,,,0.00,Wunderground v.1.15,2013-10-01 22:21:00,
2013-10-01 18:23:00,74.9,59.1,29.93,NW,320,0.0,0.0,58,0.00,,,0.00,Wunderground v.1.15,2013-10-01 22:23:00,
2013-10-01 18:24:00,74.9,59.1,29.93,NW,320,0.0,0.0,58,0.00,,,0.00,Wunderground v.1.15,2013-10-01 22:24:00,
2013-10-01 18:26:00,74.7,59.4,29.93,NW,320,0.0,0.0,59,0.00,,,0.00,Wunderground v.1.15,2013-10-01 22:26:00,
2013-10-01 18:28:00,74.6,59.3,29.92,NW,320,0.0,0.0,59,0.00,,,0.00,Wunderground v.1.15,2013-10-01 22:28:00,
2013-10-01 18:29:00,74.4,59.1,29.93,NW,320,0.0,0.0,59,0.00,,,0.00,Wunderground v.1.15,2013-10-01 22:29:00,
2013-10-01 18:32:00,74.0,59.2,29.93,NW,320,0.0,0.0,60,0.00,,,0.00,Wunderground v.1.15,2013-10-01 22:32:00,
2013-10-01 18:33:00,73.9,59.1,29.93,NW,320,0.0,0.0,60,0.00,,,0.00,Wunderground v.1.15,2013-10-01 22:33:00,
2013-10-01 18:34:00,73.9,59.6,29.93,NW,320,0.0,0.0,61,0.00,,,0.00,Wunderground v.1.15,2013-10-01 22:34:00,
2013-10-01 18:37:00,73.5,59.2,29.93,NW,320,0.0,0.0,61,0.00,,,0.00,Wunderground v.1.15,2013-10-01 22:37:00,
2013-10-01 18:38:00,73.5,59.2,29.93,NW,320,0.0,0.0,61,0.00,,,0.00,Wunderground v.1.15,2013-10-01 22:38:00,
2013-10-01 18:39:00,73.3,59.0,29.93,NW,320,0.0,0.0,61,0.00,,,0.00,Wunderground v.1.15,2013-10-01 22:39:00,
2013-10-01 18:43:00,73.0,59.2,29.93,NW,320,0.0,0.0,62,0.00,,,0.00,Wunderground v.1.15,2013-10-01 22:43:00,
2013-10-01 18:44:00,72.8,59.0,29.93,NW,320,0.0,0.0,62,0.00,,,0.00,Wunderground v.1.15,2013-10-01 22:44:00,
2013-10-01 18:48:00,72.5,59.2,29.93,NW,320,0.0,0.0,63,0.00,,,0.00,Wunderground v.1.15,2013-10-01 22:48:00,
2013-10-01 18:49:00,72.3,59.0,29.93,NW,320,0.0,0.0,63,0.00,,,0.00,Wunderground v.1.15,2013-10-01 22:49:00,
2013-10-01 18:53:00,72.0,59.2,29.93,NW,320,0.0,0.0,64,0.00,,,0.00,Wunderground v.1.15,2013-10-01 22:53:00,
2013-10-01 18:55:00,72.0,59.2,29.93,NW,320,0.0,0.0,64,0.00,,,0.00,Wunderground v.1.15,2013-10-01 22:55:00,
2013-10-01 18:59:00,71.5,59.1,29.93,NW,320,0.0,0.0,65,0.00,,,0.00,Wunderground v.1.15,2013-10-01 22:59:00,
2013-10-01 19:00:00,71.3,58.9,29.93,NW,320,0.0,0.0,65,0.00,,,0.00,Wunderground v.1.15,2013-10-01 23:00:00,
2013-10-01 19:04:00,70.9,59.4,29.93,NW,320,0.0,0.0,67,0.00,,,0.00,Wunderground v.1.15,2013-10-01 23:04:00,
2013-10-01 19:05:00,70.8,59.3,29.93,NW,320,0.0,0.0,67,0.00,,,0.00,Wunderground v.1.15,2013-10-01 23:05:00,
2013-10-01 19:09:00,70.4,59.3,29.94,NW,320,0.0,0.0,68,0.00,,,0.00,Wunderground v.1.15,2013-10-01 23:09:00,
2013-10-01 19:10:00,70.3,59.2,29.94,NW,320,0.0,0.0,68,0.00,,,0.00,Wunderground v.1.15,2013-10-01 23:10:00,
2013-10-01 19:14:00,69.9,58.9,29.94,NW,320,0.0,0.0,68,0.00,,,0.00,Wunderground v.1.15,2013-10-01 23:14:00,
2013-10-01 19:16:00,69.9,58.9,29.94,NW,320,0.0,0.0,68,0.00,,,0.00,Wunderground v.1.15,2013-10-01 23:16:00,
2013-10-01 19:19:00,69.6,59.0,29.93,NW,320,0.0,0.0,69,0.00,,,0.00,Wunderground v.1.15,2013-10-01 23:19:00,
2013-10-01 19:20:00,69.4,58.8,29.93,NW,320,0.0,0.0,69,0.00,,,0.00,Wunderground v.1.15,2013-10-01 23:20:00,
2013-10-01 19:21:00,69.3,58.7,29.93,NW,320,0.0,0.0,69,0.00,,,0.00,Wunderground v.1.15,2013-10-01 23:21:00,
2013-10-01 19:24:00,69.1,59.3,29.94,NW,320,0.0,0.0,71,0.00,,,0.00,Wunderground v.1.15,2013-10-01 23:24:00,
2013-10-01 19:25:00,69.1,59.3,29.94,NW,320,0.0,0.0,71,0.00,,,0.00,Wunderground v.1.15,2013-10-01 23:25:00,
2013-10-01 19:26:00,68.9,59.1,29.94,NW,320,0.0,0.0,71,0.00,,,0.00,Wunderground v.1.15,2013-10-01 23:26:00,
2013-10-01 19:29:00,68.6,59.2,29.94,NW,320,0.0,0.0,72,0.00,,,0.00,Wunderground v.1.15,2013-10-01 23:29:00,
2013-10-01 19:30:00,68.6,59.2,29.94,NW,320,0.0,0.0,72,0.00,,,0.00,Wunderground v.1.15,2013-10-01 23:30:00,
2013-10-01 19:32:00,68.3,58.9,29.94,NW,320,0.0,0.0,72,0.00,,,0.00,Wunderground v.1.15,2013-10-01 23:32:00,
2013-10-01 19:35:00,68.1,59.1,29.94,NW,320,0.0,0.0,73,0.00,,,0.00,Wunderground v.1.15,2013-10-01 23:35:00,
2013-10-01 19:37:00,67.9,58.9,29.94,NW,320,0.0,0.0,73,0.00,,,0.00,Wunderground v.1.15,2013-10-01 23:37:00,
2013-10-01 19:40:00,67.8,58.8,29.94,NW,320,0.0,0.0,73,0.00,,,0.00,Wunderground v.1.15,2013-10-01 23:40:00,
2013-10-01 19:42:00,67.6,59.0,29.94,NW,320,0.0,0.0,74,0.00,,,0.00,Wunderground v.1.15,2013-10-01 23:42:00,
2013-10-01 19:45:00,67.4,58.8,29.94,NW,320,0.0,0.0,74,0.00,,,0.00,Wunderground v.1.15,2013-10-01 23:45:00,
2013-10-01 19:47:00,67.3,58.7,29.94,NW,320,0.0,0.0,74,0.00,,,0.00,Wunderground v.1.15,2013-10-01 23:47:00,
2013-10-01 19:50:00,67.1,58.9,29.94,NW,320,0.0,0.0,75,0.00,,,0.00,Wunderground v.1.15,2013-10-01 23:50:00,
2013-10-01 19:52:00,66.9,59.1,29.94,NW,320,0.0,0.0,76,0.00,,,0.00,Wunderground v.1.15,2013-10-01 23:52:00,
2013-10-01 19:55:00,66.8,59.0,29.95,NW,320,0.0,0.0,76,0.00,,,0.00,Wunderground v.1.15,2013-10-01 23:55:00,
2013-10-01 19:56:00,66.8,59.0,29.94,NW,320,0.0,0.0,76,0.00,,,0.00,Wunderground v.1.15,2013-10-01 23:56:00,
2013-10-01 19:58:00,66.6,59.2,29.95,NW,320,0.0,0.0,77,0.00,,,0.00,Wunderground v.1.15,2013-10-01 23:58:00,
2013-10-01 20:00:00,66.4,59.0,29.95,NW,320,0.0,0.0,77,0.00,,,0.00,Wunderground v.1.15,2013-10-02 00:00:00,
2013-10-01 20:01:00,66.4,59.0,29.95,NW,320,0.0,0.0,77,0.00,,,0.00,Wunderground v.1.15,2013-10-02 00:01:00,
2013-10-01 20:03:00,66.3,58.9,29.95,NW,320,0.0,0.0,77,0.00,,,0.00,Wunderground v.1.15,2013-10-02 00:03:00,
2013-10-01 20:05:00,66.3,58.9,29.95,NW,320,0.0,0.0,77,0.00,,,0.00,Wunderground v.1.15,2013-10-02 00:05:00,
2013-10-01 20:06:00,66.3,58.9,29.95,NW,320,0.0,0.0,77,0.00,,,0.00,Wunderground v.1.15,2013-10-02 00:06:00,
2013-10-01 20:07:00,66.1,58.7,29.95,NW,320,0.0,0.0,77,0.00,,,0.00,Wunderground v.1.15,2013-10-02 00:07:00,
2013-10-01 20:09:00,66.0,58.9,29.95,NW,320,0.0,0.0,78,0.00,,,0.00,Wunderground v.1.15,2013-10-02 00:09:00,
2013-10-01 20:10:00,66.0,58.9,29.95,NW,320,0.0,0.0,78,0.00,,,0.00,Wunderground v.1.15,2013-10-02 00:10:00,
2013-10-01 20:11:00,66.0,58.9,29.95,NW,320,0.0,0.0,78,0.00,,,0.00,Wunderground v.1.15,2013-10-02 00:11:00,
2013-10-01 20:12:00,65.8,58.7,29.95,NW,320,0.0,0.0,78,0.00,,,0.00,Wunderground v.1.15,2013-10-02 00:12:00,
2013-10-01 20:14:00,65.8,58.7,29.95,NW,320,0.0,0.0,78,0.00,,,0.00,Wunderground v.1.15,2013-10-02 00:14:00,
2013-10-01 20:16:00,65.6,58.6,29.95,NW,320,0.0,0.0,78,0.00,,,0.00,Wunderground v.1.15,2013-10-02 00:16:00,
2013-10-01 20:17:00,65.6,58.9,29.95,NW,320,0.0,0.0,79,0.00,,,0.00,Wunderground v.1.15,2013-10-02 00:17:00,
2013-10-01 20:18:00,65.6,58.9,29.95,NW,320,0.0,0.0,79,0.00,,,0.00,Wunderground v.1.15,2013-10-02 00:18:00,
2013-10-01 20:19:00,65.6,58.9,29.95,NW,320,0.0,0.0,79,0.00,,,0.00,Wunderground v.1.15,2013-10-02 00:19:00,
2013-10-01 20:21:00,65.5,58.8,29.95,NW,320,0.0,0.0,79,0.00,,,0.00,Wunderground v.1.15,2013-10-02 00:21:00,
2013-10-01 20:22:00,65.5,58.8,29.95,NW,320,0.0,0.0,79,0.00,,,0.00,Wunderground v.1.15,2013-10-02 00:22:00,
2013-10-01 20:23:00,65.5,58.8,29.95,NW,320,0.0,0.0,79,0.00,,,0.00,Wunderground v.1.15,2013-10-02 00:23:00,
2013-10-01 20:24:00,65.5,58.8,29.95,NW,320,0.0,0.0,79,0.00,,,0.00,Wunderground v.1.15,2013-10-02 00:24:00,
2013-10-01 20:26:00,65.5,58.8,29.95,NW,320,0.0,0.0,79,0.00,,,0.00,Wunderground v.1.15,2013-10-02 00:26:00,
2013-10-01 20:27:00,65.5,58.8,29.95,NW,320,0.0,0.0,79,0.00,,,0.00,Wunderground v.1.15,2013-10-02 00:27:00,
2013-10-01 20:28:00,65.3,59.0,29.95,NW,320,0.0,0.0,80,0.00,,,0.00,Wunderground v.1.15,2013-10-02 00:28:00,
2013-10-01 20:29:00,65.3,59.0,29.95,NW,320,0.0,0.0,80,0.00,,,0.00,Wunderground v.1.15,2013-10-02 00:29:00,
2013-10-01 20:31:00,65.3,59.0,29.95,NW,320,0.0,0.0,80,0.00,,,0.00,Wunderground v.1.15,2013-10-02 00:31:00,
2013-10-01 20:32:00,65.3,59.0,29.95,NW,320,0.0,0.0,80,0.00,,,0.00,Wunderground v.1.15,2013-10-02 00:32:00,
2013-10-01 20:34:00,65.3,59.0,29.95,NW,320,0.0,0.0,80,0.00,,,0.00,Wunderground v.1.15,2013-10-02 00:34:00,
2013-10-01 20:35:00,65.3,59.0,29.95,NW,320,0.0,0.0,80,0.00,,,0.00,Wunderground v.1.15,2013-10-02 00:35:00,
2013-10-01 20:36:00,65.3,59.0,29.95,NW,320,0.0,0.0,80,0.00,,,0.00,Wunderground v.1.15,2013-10-02 00:36:00,
2013-10-01 20:37:00,65.2,58.9,29.95,NW,320,0.0,0.0,80,0.00,,,0.00,Wunderground v.1.15,2013-10-02 00:37:00,
2013-10-01 20:39:00,65.2,58.9,29.95,NW,320,0.0,0.0,80,0.00,,,0.00,Wunderground v.1.15,2013-10-02 00:39:00,
2013-10-01 20:41:00,65.2,58.9,29.95,NW,320,0.0,0.0,80,0.00,,,0.00,Wunderground v.1.15,2013-10-02 00:41:00,
2013-10-01 20:42:00,65.2,59.2,29.95,NW,320,0.0,0.0,81,0.00,,,0.00,Wunderground v.1.15,2013-10-02 00:42:00,
2013-10-01 20:44:00,65.0,59.0,29.95,NW,320,0.0,0.0,81,0.00,,,0.00,Wunderground v.1.15,2013-10-02 00:44:00,
2013-10-01 20:46:00,65.0,59.0,29.95,NW,320,0.0,0.0,81,0.00,,,0.00,Wunderground v.1.15,2013-10-02 00:46:00,
2013-10-01 20:47:00,65.0,59.0,29.95,NW,320,0.0,0.0,81,0.00,,,0.00,Wunderground v.1.15,2013-10-02 00:47:00,
2013-10-01 20:50:00,64.8,58.8,29.95,NW,320,0.0,0.0,81,0.00,,,0.00,Wunderground v.1.15,2013-10-02 00:50:00,
2013-10-01 20:51:00,64.8,58.8,29.95,NW,320,0.0,0.0,81,0.00,,,0.00,Wunderground v.1.15,2013-10-02 00:51:00,
2013-10-01 20:52:00,64.8,58.8,29.95,NW,320,0.0,0.0,81,0.00,,,0.00,Wunderground v.1.15,2013-10-02 00:52:00,
2013-10-01 20:53:00,64.8,58.8,29.95,NW,320,0.0,0.0,81,0.00,,,0.00,Wunderground v.1.15,2013-10-02 00:53:00,
2013-10-01 20:55:00,64.7,58.7,29.95,NW,320,0.0,0.0,81,0.00,,,0.00,Wunderground v.1.15,2013-10-02 00:55:00,
2013-10-01 20:56:00,64.7,58.7,29.95,NW,320,0.0,0.0,81,0.00,,,0.00,Wunderground v.1.15,2013-10-02 00:56:00,
2013-10-01 20:57:00,64.7,58.7,29.95,NW,320,0.0,0.0,81,0.00,,,0.00,Wunderground v.1.15,2013-10-02 00:57:00,
2013-10-01 20:58:00,64.7,58.7,29.95,NW,320,0.0,0.0,81,0.00,,,0.00,Wunderground v.1.15,2013-10-02 00:58:00,
2013-10-01 21:00:00,64.7,58.7,29.95,NW,320,0.0,0.0,81,0.00,,,0.00,Wunderground v.1.15,2013-10-02 01:00:00,
2013-10-01 21:01:00,64.7,58.7,29.95,NW,320,0.0,0.0,81,0.00,,,0.00,Wunderground v.1.15,2013-10-02 01:01:00,
2013-10-01 21:02:00,64.5,58.5,29.95,NW,320,0.0,0.0,81,0.00,,,0.00,Wunderground v.1.15,2013-10-02 01:02:00,
2013-10-01 21:03:00,64.5,58.5,29.95,NW,320,0.0,0.0,81,0.00,,,0.00,Wunderground v.1.15,2013-10-02 01:03:00,
2013-10-01 21:05:00,64.5,58.5,29.95,NW,320,0.0,0.0,81,0.00,,,0.00,Wunderground v.1.15,2013-10-02 01:05:00,
2013-10-01 21:06:00,64.5,58.5,29.95,NW,320,0.0,0.0,81,0.00,,,0.00,Wunderground v.1.15,2013-10-02 01:06:00,
2013-10-01 21:07:00,64.5,58.5,29.95,NW,320,0.0,0.0,81,0.00,,,0.00,Wunderground v.1.15,2013-10-02 01:07:00,
2013-10-01 21:08:00,64.3,58.3,29.95,NW,320,0.0,0.0,81,0.00,,,0.00,Wunderground v.1.15,2013-10-02 01:08:00,
2013-10-01 21:11:00,64.3,58.7,29.95,NW,320,0.0,0.0,82,0.00,,,0.00,Wunderground v.1.15,2013-10-02 01:11:00,
2013-10-01 21:12:00,64.3,58.7,29.95,NW,320,0.0,0.0,82,0.00,,,0.00,Wunderground v.1.15,2013-10-02 01:12:00,
2013-10-01 21:13:00,64.3,58.7,29.95,NW,320,0.0,0.0,82,0.00,,,0.00,Wunderground v.1.15,2013-10-02 01:13:00,
2013-10-01 21:17:00,64.2,58.6,29.95,NW,320,0.0,0.0,82,0.00,,,0.00,Wunderground v.1.15,2013-10-02 01:17:00,
2013-10-01 21:18:00,64.2,58.6,29.95,NW,320,0.0,0.0,82,0.00,,,0.00,Wunderground v.1.15,2013-10-02 01:18:00,
2013-10-01 21:19:00,64.2,58.6,29.95,NW,320,0.0,0.0,82,0.00,,,0.00,Wunderground v.1.15,2013-10-02 01:19:00,
2013-10-01 21:22:00,64.2,58.6,29.95,NW,320,0.0,0.0,82,0.00,,,0.00,Wunderground v.1.15,2013-10-02 01:22:00,
2013-10-01 21:23:00,64.0,58.4,29.95,NW,320,0.0,0.0,82,0.00,,,0.00,Wunderground v.1.15,2013-10-02 01:23:00,
2013-10-01 21:24:00,64.0,58.4,29.95,NW,320,0.0,0.0,82,0.00,,,0.00,Wunderground v.1.15,2013-10-02 01:24:00,
2013-10-01 21:27:00,64.0,58.4,29.95,NW,320,0.0,0.0,82,0.00,,,0.00,Wunderground v.1.15,2013-10-02 01:27:00,
2013-10-01 21:28:00,64.0,58.4,29.95,NW,320,0.0,0.0,82,0.00,,,0.00,Wunderground v.1.15,2013-10-02 01:28:00,
2013-10-01 21:29:00,63.9,58.3,29.95,NW,320,0.0,0.0,82,0.00,,,0.00,Wunderground v.1.15,2013-10-02 01:29:00,
2013-10-01 21:32:00,63.9,58.6,29.95,NW,320,0.0,0.0,83,0.00,,,0.00,Wunderground v.1.15,2013-10-02 01:32:00,
2013-10-01 21:33:00,63.9,58.6,29.95,NW,320,0.0,0.0,83,0.00,,,0.00,Wunderground v.1.15,2013-10-02 01:33:00,
2013-10-01 21:34:00,63.7,58.4,29.95,NW,320,0.0,0.0,83,0.00,,,0.00,Wunderground v.1.15,2013-10-02 01:34:00,
2013-10-01 21:36:00,63.7,58.4,29.95,NW,320,0.0,0.0,83,0.00,,,0.00,Wunderground v.1.15,2013-10-02 01:36:00,
2013-10-01 21:38:00,63.5,58.2,29.95,NW,320,0.0,0.0,83,0.00,,,0.00,Wunderground v.1.15,2013-10-02 01:38:00,
2013-10-01 21:39:00,63.5,58.2,29.95,NW,320,0.0,0.0,83,0.00,,,0.00,Wunderground v.1.15,2013-10-02 01:39:00,
2013-10-01 21:41:00,63.5,58.2,29.95,NW,320,0.0,0.0,83,0.00,,,0.00,Wunderground v.1.15,2013-10-02 01:41:00,
2013-10-01 21:43:00,63.4,58.1,29.95,NW,320,0.0,0.0,83,0.00,,,0.00,Wunderground v.1.15,2013-10-02 01:43:00,
2013-10-01 21:44:00,63.4,58.1,29.95,NW,320,0.0,0.0,83,0.00,,,0.00,Wunderground v.1.15,2013-10-02 01:44:00,
2013-10-01 21:45:00,63.4,58.1,29.95,NW,320,0.0,0.0,83,0.00,,,0.00,Wunderground v.1.15,2013-10-02 01:45:00,
2013-10-01 21:46:00,63.4,58.1,29.95,NW,320,0.0,0.0,83,0.00,,,0.00,Wunderground v.1.15,2013-10-02 01:46:00,
2013-10-01 21:48:00,63.4,58.1,29.96,NW,320,0.0,0.0,83,0.00,,,0.00,Wunderground v.1.15,2013-10-02 01:48:00,
2013-10-01 21:49:00,63.2,57.9,29.96,NW,320,0.0,0.0,83,0.00,,,0.00,Wunderground v.1.15,2013-10-02 01:49:00,
2013-10-01 21:50:00,63.2,57.9,29.96,NW,320,0.0,0.0,83,0.00,,,0.00,Wunderground v.1.15,2013-10-02 01:50:00,
2013-10-01 21:51:00,63.2,58.3,29.95,NW,320,0.0,0.0,84,0.00,,,0.00,Wunderground v.1.15,2013-10-02 01:51:00,
2013-10-01 21:53:00,63.2,58.3,29.95,NW,320,0.0,0.0,84,0.00,,,0.00,Wunderground v.1.15,2013-10-02 01:53:00,
2013-10-01 21:54:00,63.2,58.3,29.96,NW,320,0.0,0.0,84,0.00,,,0.00,Wunderground v.1.15,2013-10-02 01:54:00,
2013-10-01 21:55:00,63.2,58.3,29.96,NW,320,0.0,0.0,84,0.00,,,0.00,Wunderground v.1.15,2013-10-02 01:55:00,
2013-10-01 21:57:00,63.2,58.3,29.96,NW,320,0.0,0.0,84,0.00,,,0.00,Wunderground v.1.15,2013-10-02 01:57:00,
2013-10-01 21:58:00,63.2,57.9,29.96,NW,320,0.0,0.0,83,0.00,,,0.00,Wunderground v.1.15,2013-10-02 01:58:00,
2013-10-01 21:59:00,63.2,57.9,29.96,NW,320,0.0,0.0,83,0.00,,,0.00,Wunderground v.1.15,2013-10-02 01:59:00,
2013-10-01 22:00:00,63.2,57.9,29.96,NW,320,0.0,0.0,83,0.00,,,0.00,Wunderground v.1.15,2013-10-02 02:00:00,
2013-10-01 22:01:00,63.2,57.9,29.96,NW,320,0.0,0.0,83,0.00,,,0.00,Wunderground v.1.15,2013-10-02 02:01:00,
2013-10-01 22:03:00,63.4,58.1,29.96,NW,320,0.0,0.0,83,0.00,,,0.00,Wunderground v.1.15,2013-10-02 02:03:00,
2013-10-01 22:04:00,63.4,58.1,29.96,NW,320,0.0,0.0,83,0.00,,,0.00,Wunderground v.1.15,2013-10-02 02:04:00,
2013-10-01 22:06:00,63.4,58.1,29.96,NW,320,0.0,0.0,83,0.00,,,0.00,Wunderground v.1.15,2013-10-02 02:06:00,
2013-10-01 22:07:00,63.4,58.1,29.96,NW,320,0.0,0.0,83,0.00,,,0.00,Wunderground v.1.15,2013-10-02 02:07:00,
2013-10-01 22:08:00,63.4,58.1,29.96,NW,320,0.0,0.0,83,0.00,,,0.00,Wunderground v.1.15,2013-10-02 02:08:00,
2013-10-01 22:10:00,63.4,58.1,29.96,NW,320,0.0,0.0,83,0.00,,,0.00,Wunderground v.1.15,2013-10-02 02:10:00,
2013-10-01 22:11:00,63.5,58.2,29.96,NW,320,0.0,0.0,83,0.00,,,0.00,Wunderground v.1.15,2013-10-02 02:11:00,
2013-10-01 22:12:00,63.5,58.2,29.96,NW,320,0.0,0.0,83,0.00,,,0.00,Wunderground v.1.15,2013-10-02 02:12:00,
2013-10-01 22:13:00,63.5,57.9,29.96,NW,320,0.0,0.0,82,0.00,,,0.00,Wunderground v.1.15,2013-10-02 02:13:00,
2013-10-01 22:15:00,63.5,57.9,29.96,NW,320,0.0,0.0,82,0.00,,,0.00,Wunderground v.1.15,2013-10-02 02:15:00,
2013-10-01 22:16:00,63.7,58.1,29.96,NW,320,0.0,0.0,82,0.00,,,0.00,Wunderground v.1.15,2013-10-02 02:16:00,
2013-10-01 22:17:00,63.7,58.1,29.96,NW,320,0.0,1.0,82,0.00,,,0.00,Wunderground v.1.15,2013-10-02 02:17:00,
2013-10-01 22:18:00,63.7,58.1,29.96,NW,320,0.0,1.0,82,0.00,,,0.00,Wunderground v.1.15,2013-10-02 02:18:00,
2013-10-01 22:20:00,63.7,57.8,29.96,NW,320,0.0,0.0,81,0.00,,,0.00,Wunderground v.1.15,2013-10-02 02:20:00,
2013-10-01 22:21:00,63.9,58.0,29.96,NW,320,0.0,0.0,81,0.00,,,0.00,Wunderground v.1.15,2013-10-02 02:21:00,
2013-10-01 22:22:00,63.9,58.0,29.96,NW,320,0.0,0.0,81,0.00,,,0.00,Wunderground v.1.15,2013-10-02 02:22:00,
2013-10-01 22:24:00,63.9,58.0,29.96,NW,320,0.0,0.0,81,0.00,,,0.00,Wunderground v.1.15,2013-10-02 02:24:00,
2013-10-01 22:26:00,63.9,58.0,29.96,NW,320,0.0,0.0,81,0.00,,,0.00,Wunderground v.1.15,2013-10-02 02:26:00,
2013-10-01 22:27:00,63.9,58.0,29.96,NW,320,0.0,0.0,81,0.00,,,0.00,Wunderground v.1.15,2013-10-02 02:27:00,
2013-10-01 22:29:00,64.0,57.7,29.96,NW,320,0.0,0.0,80,0.00,,,0.00,Wunderground v.1.15,2013-10-02 02:29:00,
2013-10-01 22:32:00,64.0,57.7,29.96,NW,320,0.0,0.0,80,0.00,,,0.00,Wunderground v.1.15,2013-10-02 02:32:00,
2013-10-01 22:33:00,64.0,57.7,29.96,NW,320,0.0,0.0,80,0.00,,,0.00,Wunderground v.1.15,2013-10-02 02:33:00,
2013-10-01 22:34:00,64.0,57.7,29.96,NW,320,0.0,0.0,80,0.00,,,0.00,Wunderground v.1.15,2013-10-02 02:34:00,
2013-10-01 22:37:00,64.0,57.7,29.96,NW,320,0.0,0.0,80,0.00,,,0.00,Wunderground v.1.15,2013-10-02 02:37:00,
2013-10-01 22:38:00,63.9,57.6,29.96,NW,320,0.0,0.0,80,0.00,,,0.00,Wunderground v.1.15,2013-10-02 02:38:00,
2013-10-01 22:39:00,63.9,57.6,29.96,NW,320,0.0,0.0,80,0.00,,,0.00,Wunderground v.1.15,2013-10-02 02:39:00,
2013-10-01 22:42:00,63.9,57.6,29.96,NW,320,0.0,0.0,80,0.00,,,0.00,Wunderground v.1.15,2013-10-02 02:42:00,
2013-10-01 22:43:00,63.9,57.6,29.96,NW,320,0.0,0.0,80,0.00,,,0.00,Wunderground v.1.15,2013-10-02 02:43:00,
2013-10-01 22:44:00,63.9,57.6,29.96,NW,320,0.0,0.0,80,0.00,,,0.00,Wunderground v.1.15,2013-10-02 02:44:00,
2013-10-01 22:47:00,63.7,57.4,29.96,NW,320,0.0,0.0,80,0.00,,,0.00,Wunderground v.1.15,2013-10-02 02:47:00,
2013-10-01 22:48:00,63.7,57.4,29.96,NW,320,0.0,0.0,80,0.00,,,0.00,Wunderground v.1.15,2013-10-02 02:48:00,
2013-10-01 22:49:00,63.7,57.4,29.96,NW,320,0.0,0.0,80,0.00,,,0.00,Wunderground v.1.15,2013-10-02 02:49:00,
2013-10-01 22:50:00,63.7,57.4,29.96,NW,320,0.0,0.0,80,0.00,,,0.00,Wunderground v.1.15,2013-10-02 02:50:00,
2013-10-01 22:53:00,63.5,57.2,29.96,NW,320,0.0,0.0,80,0.00,,,0.00,Wunderground v.1.15,2013-10-02 02:53:00,
2013-10-01 22:54:00,63.4,57.1,29.96,NW,320,0.0,0.0,80,0.00,,,0.00,Wunderground v.1.15,2013-10-02 02:54:00,
2013-10-01 22:55:00,63.4,57.1,29.96,NW,320,0.0,0.0,80,0.00,,,0.00,Wunderground v.1.15,2013-10-02 02:55:00,
2013-10-01 22:58:00,63.4,57.5,29.96,NW,320,0.0,0.0,81,0.00,,,0.00,Wunderground v.1.15,2013-10-02 02:58:00,
2013-10-01 22:59:00,63.2,57.3,29.97,NW,320,0.0,0.0,81,0.00,,,0.00,Wunderground v.1.15,2013-10-02 02:59:00,
2013-10-01 23:00:00,63.2,57.3,29.97,NW,320,0.0,0.0,81,0.00,,,0.00,Wunderground v.1.15,2013-10-02 03:00:00,
2013-10-01 23:03:00,63.2,57.3,29.97,NW,320,0.0,1.0,81,0.00,,,0.00,Wunderground v.1.15,2013-10-02 03:03:00,
2013-10-01 23:05:00,63.2,57.3,29.97,NW,320,0.0,1.0,81,0.00,,,0.00,Wunderground v.1.15,2013-10-02 03:05:00,
2013-10-01 23:08:00,63.1,57.2,29.97,NW,320,0.0,1.0,81,0.00,,,0.00,Wunderground v.1.15,2013-10-02 03:08:00,
2013-10-01 23:10:00,63.1,57.2,29.97,NW,320,0.0,0.0,81,0.00,,,0.00,Wunderground v.1.15,2013-10-02 03:10:00,
2013-10-01 23:11:00,63.1,57.2,29.97,NW,320,0.0,0.0,81,0.00,,,0.00,Wunderground v.1.15,2013-10-02 03:11:00,
2013-10-01 23:14:00,63.1,57.2,29.97,NW,320,0.0,0.0,81,0.00,,,0.00,Wunderground v.1.15,2013-10-02 03:14:00,
2013-10-01 23:15:00,63.1,57.2,29.97,NW,320,0.0,0.0,81,0.00,,,0.00,Wunderground v.1.15,2013-10-02 03:15:00,
2013-10-01 23:16:00,62.9,57.0,29.97,NW,320,0.0,0.0,81,0.00,,,0.00,Wunderground v.1.15,2013-10-02 03:16:00,
2013-10-01 23:19:00,62.9,57.3,29.97,NW,320,0.0,1.0,82,0.00,,,0.00,Wunderground v.1.15,2013-10-02 03:19:00,
2013-10-01 23:20:00,62.9,57.3,29.97,NW,320,0.0,0.0,82,0.00,,,0.00,Wunderground v.1.15,2013-10-02 03:20:00,
2013-10-01 23:21:00,62.9,57.3,29.97,NW,320,0.0,0.0,82,0.00,,,0.00,Wunderground v.1.15,2013-10-02 03:21:00,
2013-10-01 23:24:00,62.9,57.3,29.97,NW,320,0.0,0.0,82,0.00,,,0.00,Wunderground v.1.15,2013-10-02 03:24:00,
2013-10-01 23:25:00,62.9,57.3,29.97,NW,320,0.0,0.0,82,0.00,,,0.00,Wunderground v.1.15,2013-10-02 03:25:00,
2013-10-01 23:27:00,62.9,57.3,29.97,NW,320,0.0,0.0,82,0.00,,,0.00,Wunderground v.1.15,2013-10-02 03:27:00,
2013-10-01 23:29:00,62.7,57.1,29.97,NW,320,0.0,0.0,82,0.00,,,0.00,Wunderground v.1.15,2013-10-02 03:29:00,
2013-10-01 23:30:00,62.7,57.1,29.97,NW,320,0.0,0.0,82,0.00,,,0.00,Wunderground v.1.15,2013-10-02 03:30:00,
2013-10-01 23:31:00,62.7,57.1,29.97,NW,320,0.0,0.0,82,0.00,,,0.00,Wunderground v.1.15,2013-10-02 03:31:00,
2013-10-01 23:32:00,62.7,57.1,29.97,NW,320,0.0,0.0,82,0.00,,,0.00,Wunderground v.1.15,2013-10-02 03:32:00,
2013-10-01 23:34:00,62.7,57.1,29.97,NW,320,0.0,0.0,82,0.00,,,0.00,Wunderground v.1.15,2013-10-02 03:34:00,
2013-10-01 23:36:00,62.7,57.5,29.97,NW,320,0.0,0.0,83,0.00,,,0.00,Wunderground v.1.15,2013-10-02 03:36:00,
2013-10-01 23:37:00,62.7,57.5,29.97,NW,320,0.0,0.0,83,0.00,,,0.00,Wunderground v.1.15,2013-10-02 03:37:00,
2013-10-01 23:38:00,62.7,57.5,29.97,NW,320,0.0,0.0,83,0.00,,,0.00,Wunderground v.1.15,2013-10-02 03:38:00,
2013-10-01 23:40:00,62.6,57.4,29.97,NW,320,0.0,0.0,83,0.00,,,0.00,Wunderground v.1.15,2013-10-02 03:40:00,
2013-10-01 23:41:00,62.6,57.4,29.97,NW,320,0.0,0.0,83,0.00,,,0.00,Wunderground v.1.15,2013-10-02 03:41:00,
2013-10-01 23:42:00,62.6,57.4,29.97,NW,320,0.0,0.0,83,0.00,,,0.00,Wunderground v.1.15,2013-10-02 03:42:00,
2013-10-01 23:43:00,62.6,57.4,29.97,NW,320,0.0,0.0,83,0.00,,,0.00,Wunderground v.1.15,2013-10-02 03:43:00,
2013-10-01 23:45:00,62.6,57.4,29.97,NW,320,0.0,0.0,83,0.00,,,0.00,Wunderground v.1.15,2013-10-02 03:45:00,
2013-10-01 23:46:00,62.6,57.4,29.97,NW,320,0.0,0.0,83,0.00,,,0.00,Wunderground v.1.15,2013-10-02 03:46:00,
2013-10-01 23:47:00,62.6,57.4,29.97,NW,320,0.0,0.0,83,0.00,,,0.00,Wunderground v.1.15,2013-10-02 03:47:00,
2013-10-01 23:48:00,62.6,57.4,29.97,NW,320,0.0,0.0,83,0.00,,,0.00,Wunderground v.1.15,2013-10-02 03:48:00,
2013-10-01 23:50:00,62.6,57.4,29.97,NW,320,0.0,0.0,83,0.00,,,0.00,Wunderground v.1.15,2013-10-02 03:50:00,
2013-10-01 23:51:00,62.6,57.4,29.97,NW,320,0.0,0.0,83,0.00,,,0.00,Wunderground v.1.15,2013-10-02 03:51:00,
2013-10-01 23:52:00,62.6,57.4,29.97,NW,320,0.0,0.0,83,0.00,,,0.00,Wunderground v.1.15,2013-10-02 03:52:00,
2013-10-01 23:53:00,62.6,57.4,29.97,NW,320,0.0,0.0,83,0.00,,,0.00,Wunderground v.1.15,2013-10-02 03:53:00,
2013-10-01 23:55:00,62.6,57.4,29.97,NW,320,0.0,0.0,83,0.00,,,0.00,Wunderground v.1.15,2013-10-02 03:55:00,
2013-10-01 23:56:00,62.6,57.4,29.97,NW,320,0.0,0.0,83,0.00,,,0.00,Wunderground v.1.15,2013-10-02 03:56:00,
2013-10-01 23:57:00,62.4,57.2,29.97,NW,320,0.0,0.0,83,0.00,,,0.00,Wunderground v.1.15,2013-10-02 03:57:00,
2013-10-01 23:58:00,62.4,57.2,29.97,NW,320,0.0,0.0,83,0.00,,,0.00,Wunderground v.1.15,2013-10-02 03:58:00,